Time,TemperatureF,DewpointF,PressureIn,WindDirection,WindDirectionDegrees,WindSpeedMPH,WindSpeedGustMPH,Humidity,HourlyPrecipIn,Conditions,Clouds,dailyrainin,SoftwareType,DateUTC
2013-08-27 00:00:00,63.1,58.6,29.53,SW,228,0.0,0.0,85,0.00,,---,0.00,VWS V13.01,2013-08-27 07:00:00,
2013-08-27 00:01:00,63.1,58.6,29.53,SW,228,0.0,0.0,85,0.00,,---,0.00,VWS V13.01,2013-08-27 07:01:00,
2013-08-27 00:04:00,63.0,58.7,29.53,SW,228,0.0,0.0,86,0.00,,---,0.00,VWS V13.01,2013-08-27 07:04:00,
2013-08-27 00:05:00,63.0,58.7,29.53,SW,228,0.0,0.0,86,0.00,,---,0.00,VWS V13.01,2013-08-27 07:05:00,
2013-08-27 00:06:00,63.0,58.4,29.53,SW,228,0.0,0.0,85,0.00,,---,0.00,VWS V13.01,2013-08-27 07:06:00,
2013-08-27 00:09:00,63.1,58.6,29.53,SW,228,0.0,0.0,85,0.00,,---,0.00,VWS V13.01,2013-08-27 07:09:00,
2013-08-27 00:10:00,63.1,58.6,29.53,SW,228,0.0,0.0,85,0.00,,---,0.00,VWS V13.01,2013-08-27 07:10:00,
2013-08-27 00:11:00,63.1,58.6,29.53,SW,228,0.0,0.0,85,0.00,,---,0.00,VWS V13.01,2013-08-27 07:11:00,
2013-08-27 00:14:00,63.3,58.7,29.53,SW,228,0.0,0.0,85,0.00,,---,0.00,VWS V13.01,2013-08-27 07:14:00,
2013-08-27 00:15:00,63.3,58.7,29.53,SW,228,0.0,0.0,85,0.00,,---,0.00,VWS V13.01,2013-08-27 07:15:00,
2013-08-27 00:16:00,63.3,58.7,29.53,SW,228,0.0,0.0,85,0.00,,---,0.00,VWS V13.01,2013-08-27 07:16:00,
2013-08-27 00:17:00,63.1,58.6,29.53,SW,228,0.0,0.0,85,0.00,,---,0.00,VWS V13.01,2013-08-27 07:17:00,
2013-08-27 00:19:00,63.1,58.6,29.53,SW,228,0.0,0.0,85,0.00,,---,0.00,VWS V13.01,2013-08-27 07:19:00,
2013-08-27 00:20:00,63.1,58.6,29.53,SW,228,0.0,0.0,85,0.00,,---,0.00,VWS V13.01,2013-08-27 07:20:00,
2013-08-27 00:21:00,63.1,58.6,29.53,SW,228,0.0,0.0,85,0.00,,---,0.00,VWS V13.01,2013-08-27 07:21:00,
2013-08-27 00:22:00,63.1,58.6,29.53,SW,228,0.0,0.0,85,0.00,,---,0.00,VWS V13.01,2013-08-27 07:22:00,
2013-08-27 00:24:00,63.1,58.6,29.53,SW,228,0.0,0.0,85,0.00,,---,0.00,VWS V13.01,2013-08-27 07:24:00,
2013-08-27 00:26:00,63.1,58.6,29.53,SW,228,0.0,0.0,85,0.00,,---,0.00,VWS V13.01,2013-08-27 07:26:00,
2013-08-27 00:27:00,63.1,58.9,29.53,SW,228,0.0,0.0,86,0.00,,---,0.00,VWS V13.01,2013-08-27 07:27:00,
2013-08-27 00:29:00,63.0,58.7,29.53,SW,228,0.0,0.0,86,0.00,,---,0.00,VWS V13.01,2013-08-27 07:29:00,
2013-08-27 00:31:00,63.0,58.7,29.53,SW,228,0.0,0.0,86,0.00,,---,0.00,VWS V13.01,2013-08-27 07:31:00,
2013-08-27 00:32:00,63.0,58.7,29.53,SW,228,0.0,0.0,86,0.00,,---,0.00,VWS V13.01,2013-08-27 07:32:00,
2013-08-27 00:35:00,63.0,58.7,29.53,SW,228,0.0,0.0,86,0.00,,---,0.00,VWS V13.01,2013-08-27 07:35:00,
2013-08-27 00:36:00,63.1,58.9,29.53,SW,228,0.0,0.0,86,0.00,,---,0.00,VWS V13.01,2013-08-27 07:36:00,
2013-08-27 00:37:00,63.1,58.9,29.53,SW,228,0.0,0.0,86,0.00,,---,0.00,VWS V13.01,2013-08-27 07:37:00,
2013-08-27 00:40:00,63.1,58.9,29.53,SW,228,0.0,0.0,86,0.00,,---,0.00,VWS V13.01,2013-08-27 07:40:00,
2013-08-27 00:41:00,63.1,58.9,29.53,SW,228,0.0,0.0,86,0.00,,---,0.00,VWS V13.01,2013-08-27 07:41:00,
2013-08-27 00:42:00,63.1,58.9,29.53,SW,228,0.0,0.0,86,0.00,,---,0.00,VWS V13.01,2013-08-27 07:42:00,
2013-08-27 00:45:00,63.0,58.7,29.53,SW,228,0.0,0.0,86,0.00,,---,0.00,VWS V13.01,2013-08-27 07:45:00,
2013-08-27 00:46:00,63.0,58.7,29.53,SW,228,0.0,0.0,86,0.00,,---,0.00,VWS V13.01,2013-08-27 07:46:00,
2013-08-27 00:47:00,63.0,58.7,29.53,SW,228,0.0,0.0,86,0.00,,---,0.00,VWS V13.01,2013-08-27 07:47:00,
2013-08-27 00:51:00,63.1,58.9,29.53,SW,228,0.0,0.0,86,0.00,,---,0.00,VWS V13.01,2013-08-27 07:51:00,
2013-08-27 00:52:00,63.1,58.9,29.53,SW,228,0.0,0.0,86,0.00,,---,0.00,VWS V13.01,2013-08-27 07:52:00,
2013-08-27 00:56:00,63.1,58.9,29.53,SW,228,0.0,0.0,86,0.00,,---,0.00,VWS V13.01,2013-08-27 07:56:00,
2013-08-27 00:57:00,63.1,58.9,29.53,SW,228,0.0,0.0,86,0.00,,---,0.00,VWS V13.01,2013-08-27 07:57:00,
2013-08-27 01:01:00,63.1,58.9,29.53,SW,228,0.0,0.0,86,0.00,,---,0.00,VWS V13.01,2013-08-27 08:01:00,
2013-08-27 01:02:00,63.1,58.6,29.53,SW,228,0.0,0.0,85,0.00,,---,0.00,VWS V13.01,2013-08-27 08:02:00,
2013-08-27 01:03:00,63.1,58.6,29.53,SW,228,0.0,0.0,85,0.00,,---,0.00,VWS V13.01,2013-08-27 08:03:00,
2013-08-27 01:06:00,63.0,58.7,29.53,SW,228,0.0,0.0,86,0.00,,---,0.00,VWS V13.01,2013-08-27 08:06:00,
2013-08-27 01:07:00,63.1,58.6,29.53,SW,228,0.0,0.0,85,0.00,,---,0.00,VWS V13.01,2013-08-27 08:07:00,
2013-08-27 01:08:00,63.1,58.6,29.53,SW,228,0.0,0.0,85,0.00,,---,0.00,VWS V13.01,2013-08-27 08:08:00,
2013-08-27 01:11:00,63.1,58.2,29.53,SW,228,0.0,0.0,84,0.00,,---,0.00,VWS V13.01,2013-08-27 08:11:00,
2013-08-27 01:12:00,63.1,58.2,29.53,SW,228,0.0,0.0,84,0.00,,---,0.00,VWS V13.01,2013-08-27 08:12:00,
2013-08-27 01:13:00,63.1,58.2,29.53,SW,228,0.0,0.0,84,0.00,,---,0.00,VWS V13.01,2013-08-27 08:13:00,
2013-08-27 01:16:00,63.1,58.6,29.53,SW,228,0.0,0.0,85,0.00,,---,0.00,VWS V13.01,2013-08-27 08:16:00,
2013-08-27 01:17:00,63.1,58.6,29.53,SW,228,0.0,0.0,85,0.00,,---,0.00,VWS V13.01,2013-08-27 08:17:00,
2013-08-27 01:18:00,63.1,58.6,29.53,SW,228,0.0,0.0,85,0.00,,---,0.00,VWS V13.01,2013-08-27 08:18:00,
2013-08-27 01:21:00,63.1,58.6,29.53,SW,228,0.0,0.0,85,0.00,,---,0.00,VWS V13.01,2013-08-27 08:21:00,
2013-08-27 01:22:00,63.0,58.4,29.53,SW,228,0.0,0.0,85,0.00,,---,0.00,VWS V13.01,2013-08-27 08:22:00,
2013-08-27 01:23:00,63.0,58.7,29.53,SW,228,0.0,0.0,86,0.00,,---,0.00,VWS V13.01,2013-08-27 08:23:00,
2013-08-27 01:26:00,63.0,58.4,29.53,SW,228,0.0,0.0,85,0.00,,---,0.00,VWS V13.01,2013-08-27 08:26:00,
2013-08-27 01:27:00,63.0,58.4,29.53,SW,228,0.0,0.0,85,0.00,,---,0.00,VWS V13.01,2013-08-27 08:27:00,
2013-08-27 01:28:00,63.1,58.6,29.53,SW,228,0.0,0.0,85,0.00,,---,0.00,VWS V13.01,2013-08-27 08:28:00,
2013-08-27 01:31:00,63.1,58.6,29.53,SW,228,0.0,0.0,85,0.00,,---,0.00,VWS V13.01,2013-08-27 08:31:00,
2013-08-27 01:32:00,63.1,58.9,29.53,SW,228,0.0,0.0,86,0.00,,---,0.00,VWS V13.01,2013-08-27 08:32:00,
2013-08-27 01:33:00,63.0,58.7,29.53,SW,228,0.0,0.0,86,0.00,,---,0.00,VWS V13.01,2013-08-27 08:33:00,
2013-08-27 01:36:00,62.8,58.5,29.53,SW,228,0.0,0.0,86,0.00,,---,0.00,VWS V13.01,2013-08-27 08:36:00,
2013-08-27 01:37:00,62.8,58.5,29.53,SW,228,0.0,0.0,86,0.00,,---,0.00,VWS V13.01,2013-08-27 08:37:00,
2013-08-27 01:39:00,63.0,58.7,29.53,SW,228,0.0,0.0,86,0.00,,---,0.00,VWS V13.01,2013-08-27 08:39:00,
2013-08-27 01:42:00,63.0,58.7,29.53,SW,228,0.0,0.0,86,0.00,,---,0.00,VWS V13.01,2013-08-27 08:42:00,
2013-08-27 01:43:00,63.0,58.7,29.53,SW,228,0.0,0.0,86,0.00,,---,0.00,VWS V13.01,2013-08-27 08:43:00,
2013-08-27 01:44:00,63.0,58.7,29.53,SW,228,0.0,0.0,86,0.00,,---,0.00,VWS V13.01,2013-08-27 08:44:00,
2013-08-27 01:47:00,63.0,58.7,29.53,SW,228,0.0,0.0,86,0.00,,---,0.00,VWS V13.01,2013-08-27 08:47:00,
2013-08-27 01:48:00,63.0,58.7,29.53,SW,228,0.0,0.0,86,0.00,,---,0.00,VWS V13.01,2013-08-27 08:48:00,
2013-08-27 01:49:00,63.0,58.7,29.53,SW,228,0.0,0.0,86,0.00,,---,0.00,VWS V13.01,2013-08-27 08:49:00,
2013-08-27 01:52:00,63.1,58.9,29.53,SW,228,0.0,0.0,86,0.00,,---,0.00,VWS V13.01,2013-08-27 08:52:00,
2013-08-27 01:53:00,63.1,58.6,29.53,SW,228,0.0,0.0,85,0.00,,---,0.00,VWS V13.01,2013-08-27 08:53:00,
2013-08-27 01:54:00,63.1,58.6,29.53,SW,228,0.0,0.0,85,0.00,,---,0.00,VWS V13.01,2013-08-27 08:54:00,
2013-08-27 01:57:00,63.1,58.6,29.53,SW,228,0.0,0.0,85,0.00,,---,0.00,VWS V13.01,2013-08-27 08:57:00,
2013-08-27 01:58:00,63.1,58.9,29.53,SW,228,0.0,0.0,86,0.00,,---,0.00,VWS V13.01,2013-08-27 08:58:00,
2013-08-27 01:59:00,63.1,58.9,29.53,SW,228,0.0,0.0,86,0.00,,---,0.00,VWS V13.01,2013-08-27 08:59:00,
2013-08-27 02:02:00,63.1,58.9,29.53,SW,228,0.0,0.0,86,0.00,,---,0.00,VWS V13.01,2013-08-27 09:02:00,
2013-08-27 02:03:00,63.1,58.9,29.53,SW,228,0.0,0.0,86,0.00,,---,0.00,VWS V13.01,2013-08-27 09:03:00,
2013-08-27 02:04:00,63.1,58.9,29.53,SW,228,0.0,0.0,86,0.00,,---,0.00,VWS V13.01,2013-08-27 09:04:00,
2013-08-27 02:07:00,63.0,59.0,29.53,SW,228,0.0,0.0,87,0.00,,---,0.00,VWS V13.01,2013-08-27 09:07:00,
2013-08-27 02:08:00,63.0,59.0,29.53,SW,228,0.0,0.0,87,0.00,,---,0.00,VWS V13.01,2013-08-27 09:08:00,
2013-08-27 02:09:00,63.0,58.7,29.53,SW,228,0.0,0.0,86,0.00,,---,0.00,VWS V13.01,2013-08-27 09:09:00,
2013-08-27 02:12:00,62.8,58.9,29.53,SW,228,0.0,0.0,87,0.00,,---,0.00,VWS V13.01,2013-08-27 09:12:00,
2013-08-27 02:13:00,62.8,58.9,29.53,SW,228,0.0,0.0,87,0.00,,---,0.00,VWS V13.01,2013-08-27 09:13:00,
2013-08-27 02:15:00,62.8,58.9,29.53,SW,228,0.0,0.0,87,0.00,,---,0.00,VWS V13.01,2013-08-27 09:15:00,
2013-08-27 02:17:00,63.0,59.0,29.53,SW,228,0.0,0.0,87,0.00,,---,0.00,VWS V13.01,2013-08-27 09:17:00,
2013-08-27 02:18:00,63.0,59.0,29.53,SW,228,0.0,0.0,87,0.00,,---,0.00,VWS V13.01,2013-08-27 09:18:00,
2013-08-27 02:20:00,63.0,58.7,29.53,SW,228,0.0,0.0,86,0.00,,---,0.00,VWS V13.01,2013-08-27 09:20:00,
2013-08-27 02:22:00,63.0,58.7,29.53,SW,228,0.0,0.0,86,0.00,,---,0.00,VWS V13.01,2013-08-27 09:22:00,
2013-08-27 02:23:00,63.0,58.4,29.53,SW,228,0.0,0.0,85,0.00,,---,0.00,VWS V13.01,2013-08-27 09:23:00,
2013-08-27 02:25:00,63.1,58.6,29.53,SW,228,0.0,0.0,85,0.00,,---,0.00,VWS V13.01,2013-08-27 09:25:00,
2013-08-27 02:28:00,63.1,58.6,29.53,SW,228,0.0,0.0,85,0.00,,---,0.00,VWS V13.01,2013-08-27 09:28:00,
2013-08-27 02:30:00,63.1,58.6,29.53,SW,228,0.0,0.0,85,0.00,,---,0.00,VWS V13.01,2013-08-27 09:30:00,
2013-08-27 02:33:00,63.1,58.9,29.53,SW,228,0.0,0.0,86,0.00,,---,0.00,VWS V13.01,2013-08-27 09:33:00,
2013-08-27 02:34:00,63.0,58.7,29.53,SW,228,0.0,0.0,86,0.00,,---,0.00,VWS V13.01,2013-08-27 09:34:00,
2013-08-27 02:35:00,63.0,58.7,29.53,SW,228,0.0,0.0,86,0.00,,---,0.00,VWS V13.01,2013-08-27 09:35:00,
2013-08-27 02:38:00,63.0,58.4,29.53,SW,228,0.0,0.0,85,0.00,,---,0.00,VWS V13.01,2013-08-27 09:38:00,
2013-08-27 02:39:00,63.0,58.4,29.53,SW,228,0.0,0.0,85,0.00,,---,0.00,VWS V13.01,2013-08-27 09:39:00,
2013-08-27 02:40:00,63.0,58.4,29.53,SW,228,0.0,0.0,85,0.00,,---,0.00,VWS V13.01,2013-08-27 09:40:00,
2013-08-27 02:43:00,63.0,58.4,29.53,SW,228,0.0,0.0,85,0.00,,---,0.00,VWS V13.01,2013-08-27 09:43:00,
2013-08-27 02:44:00,63.0,58.7,29.53,SW,228,0.0,0.0,86,0.00,,---,0.00,VWS V13.01,2013-08-27 09:44:00,
2013-08-27 02:45:00,63.0,58.7,29.53,SW,228,0.0,0.0,86,0.00,,---,0.00,VWS V13.01,2013-08-27 09:45:00,
2013-08-27 02:48:00,63.0,58.7,29.53,SW,228,0.0,0.0,86,0.00,,---,0.00,VWS V13.01,2013-08-27 09:48:00,
2013-08-27 02:49:00,63.0,58.7,29.53,SW,228,0.0,0.0,86,0.00,,---,0.00,VWS V13.01,2013-08-27 09:49:00,
2013-08-27 02:50:00,63.0,58.7,29.53,SW,228,0.0,0.0,86,0.00,,---,0.00,VWS V13.01,2013-08-27 09:50:00,
2013-08-27 02:53:00,62.8,58.5,29.53,SW,228,0.0,0.0,86,0.00,,---,0.00,VWS V13.01,2013-08-27 09:53:00,
2013-08-27 02:54:00,62.8,58.5,29.53,SW,228,0.0,0.0,86,0.00,,---,0.00,VWS V13.01,2013-08-27 09:54:00,
2013-08-27 02:56:00,62.8,58.5,29.53,SW,228,0.0,0.0,86,0.00,,---,0.00,VWS V13.01,2013-08-27 09:56:00,
2013-08-27 02:59:00,63.0,58.7,29.53,SW,228,0.0,0.0,86,0.00,,---,0.00,VWS V13.01,2013-08-27 09:59:00,
2013-08-27 03:00:00,63.0,58.7,29.53,SW,228,0.0,0.0,86,0.00,,---,0.00,VWS V13.01,2013-08-27 10:00:00,
2013-08-27 03:01:00,62.8,58.5,29.53,SW,228,0.0,0.0,86,0.00,,---,0.00,VWS V13.01,2013-08-27 10:01:00,
2013-08-27 03:04:00,62.8,58.5,29.53,SW,228,0.0,0.0,86,0.00,,---,0.00,VWS V13.01,2013-08-27 10:04:00,
2013-08-27 03:05:00,62.6,58.7,29.53,SW,228,0.0,0.0,87,0.00,,---,0.00,VWS V13.01,2013-08-27 10:05:00,
2013-08-27 03:06:00,62.4,58.5,29.53,SW,228,0.0,0.0,87,0.00,,---,0.00,VWS V13.01,2013-08-27 10:06:00,
2013-08-27 03:09:00,62.4,58.8,29.53,SW,228,0.0,0.0,88,0.00,,---,0.00,VWS V13.01,2013-08-27 10:09:00,
2013-08-27 03:10:00,62.4,58.5,29.53,SW,228,0.0,0.0,87,0.00,,---,0.00,VWS V13.01,2013-08-27 10:10:00,
2013-08-27 03:11:00,62.6,58.7,29.53,SW,228,0.0,0.0,87,0.00,,---,0.00,VWS V13.01,2013-08-27 10:11:00,
2013-08-27 03:14:00,62.6,58.7,29.53,SW,228,0.0,0.0,87,0.00,,---,0.00,VWS V13.01,2013-08-27 10:14:00,
2013-08-27 03:15:00,62.6,58.7,29.53,SW,228,0.0,0.0,87,0.00,,---,0.00,VWS V13.01,2013-08-27 10:15:00,
2013-08-27 03:16:00,62.6,58.7,29.53,SW,228,0.0,0.0,87,0.00,,---,0.00,VWS V13.01,2013-08-27 10:16:00,
2013-08-27 03:19:00,62.6,58.7,29.50,SW,228,0.0,0.0,87,0.00,,---,0.00,VWS V13.01,2013-08-27 10:19:00,
2013-08-27 03:20:00,62.6,58.7,29.50,SW,228,0.0,0.0,87,0.00,,---,0.00,VWS V13.01,2013-08-27 10:20:00,
2013-08-27 03:21:00,62.6,58.4,29.50,SW,228,0.0,0.0,86,0.00,,---,0.00,VWS V13.01,2013-08-27 10:21:00,
2013-08-27 03:24:00,62.6,58.4,29.50,SW,228,0.0,0.0,86,0.00,,---,0.00,VWS V13.01,2013-08-27 10:24:00,
2013-08-27 03:26:00,62.8,58.5,29.50,SW,228,0.0,0.0,86,0.00,,---,0.00,VWS V13.01,2013-08-27 10:26:00,
2013-08-27 03:29:00,62.6,58.4,29.50,SW,228,0.0,0.0,86,0.00,,---,0.00,VWS V13.01,2013-08-27 10:29:00,
2013-08-27 03:31:00,62.6,58.7,29.50,SW,228,0.0,0.0,87,0.00,,---,0.00,VWS V13.01,2013-08-27 10:31:00,
2013-08-27 03:34:00,62.4,58.8,29.50,SW,228,0.0,0.0,88,0.00,,---,0.00,VWS V13.01,2013-08-27 10:34:00,
2013-08-27 03:36:00,62.4,58.8,29.50,SW,228,0.0,0.0,88,0.00,,---,0.00,VWS V13.01,2013-08-27 10:36:00,
2013-08-27 03:39:00,62.4,58.8,29.50,SW,228,0.0,0.0,88,0.00,,---,0.00,VWS V13.01,2013-08-27 10:39:00,
2013-08-27 03:41:00,62.4,58.8,29.50,SW,228,0.0,0.0,88,0.00,,---,0.00,VWS V13.01,2013-08-27 10:41:00,
2013-08-27 03:42:00,62.4,58.8,29.50,SW,228,0.0,0.0,88,0.00,,---,0.00,VWS V13.01,2013-08-27 10:42:00,
2013-08-27 03:44:00,62.4,58.8,29.50,SW,228,0.0,0.0,88,0.00,,---,0.00,VWS V13.01,2013-08-27 10:44:00,
2013-08-27 03:45:00,62.4,58.8,29.50,SW,228,0.0,0.0,88,0.00,,---,0.00,VWS V13.01,2013-08-27 10:45:00,
2013-08-27 03:47:00,62.4,58.8,29.50,SW,228,0.0,0.0,88,0.00,,---,0.00,VWS V13.01,2013-08-27 10:47:00,
2013-08-27 03:49:00,62.4,59.1,29.50,SW,228,0.0,0.0,89,0.00,,---,0.00,VWS V13.01,2013-08-27 10:49:00,
2013-08-27 03:50:00,62.2,59.0,29.50,SW,228,0.0,0.0,89,0.00,,---,0.00,VWS V13.01,2013-08-27 10:50:00,
2013-08-27 03:52:00,62.2,59.0,29.50,SW,228,0.0,0.0,89,0.00,,---,0.00,VWS V13.01,2013-08-27 10:52:00,
2013-08-27 03:54:00,62.2,59.0,29.50,SW,228,0.0,0.0,89,0.00,,---,0.00,VWS V13.01,2013-08-27 10:54:00,
2013-08-27 03:55:00,62.2,59.0,29.50,SW,228,0.0,0.0,89,0.00,,---,0.00,VWS V13.01,2013-08-27 10:55:00,
2013-08-27 03:57:00,62.4,58.8,29.50,SW,228,0.0,0.0,88,0.00,,---,0.00,VWS V13.01,2013-08-27 10:57:00,
2013-08-27 03:59:00,62.4,58.8,29.50,SW,228,0.0,0.0,88,0.00,,---,0.00,VWS V13.01,2013-08-27 10:59:00,
2013-08-27 04:00:00,62.4,58.8,29.50,SW,228,0.0,0.0,88,0.00,,---,0.00,VWS V13.01,2013-08-27 11:00:00,
2013-08-27 04:02:00,62.4,59.1,29.53,SW,228,0.0,0.0,89,0.00,,---,0.00,VWS V13.01,2013-08-27 11:02:00,
2013-08-27 04:04:00,62.2,59.0,29.53,SW,228,0.0,0.0,89,0.00,,---,0.00,VWS V13.01,2013-08-27 11:04:00,
2013-08-27 04:05:00,62.2,59.0,29.53,SW,228,0.0,0.0,89,0.00,,---,0.00,VWS V13.01,2013-08-27 11:05:00,
2013-08-27 04:07:00,62.2,59.0,29.53,SW,228,0.0,0.0,89,0.00,,---,0.00,VWS V13.01,2013-08-27 11:07:00,
2013-08-27 04:09:00,62.2,59.0,29.53,SW,228,0.0,0.0,89,0.00,,---,0.00,VWS V13.01,2013-08-27 11:09:00,
2013-08-27 04:10:00,62.2,59.0,29.53,SW,228,0.0,0.0,89,0.00,,---,0.00,VWS V13.01,2013-08-27 11:10:00,
2013-08-27 04:11:00,62.2,59.0,29.53,SW,228,0.0,0.0,89,0.00,,---,0.00,VWS V13.01,2013-08-27 11:11:00,
2013-08-27 04:12:00,62.2,59.0,29.53,SW,228,0.0,0.0,89,0.00,,---,0.00,VWS V13.01,2013-08-27 11:12:00,
2013-08-27 04:13:00,62.2,59.0,29.53,SW,228,0.0,0.0,89,0.00,,---,0.00,VWS V13.01,2013-08-27 11:13:00,
2013-08-27 04:15:00,62.2,59.0,29.53,SW,228,0.0,0.0,89,0.00,,---,0.00,VWS V13.01,2013-08-27 11:15:00,
2013-08-27 04:16:00,62.2,59.0,29.53,SW,228,0.0,0.0,89,0.00,,---,0.00,VWS V13.01,2013-08-27 11:16:00,
2013-08-27 04:17:00,62.2,59.0,29.50,SW,228,0.0,0.0,89,0.00,,---,0.00,VWS V13.01,2013-08-27 11:17:00,
2013-08-27 04:18:00,62.2,59.0,29.50,SW,228,0.0,0.0,89,0.00,,---,0.00,VWS V13.01,2013-08-27 11:18:00,
2013-08-27 04:20:00,62.2,59.0,29.50,SW,228,0.0,0.0,89,0.00,,---,0.00,VWS V13.01,2013-08-27 11:20:00,
2013-08-27 04:21:00,62.2,59.0,29.50,SW,228,0.0,0.0,89,0.00,,---,0.00,VWS V13.01,2013-08-27 11:21:00,
2013-08-27 04:22:00,62.1,58.8,29.50,SW,228,0.0,0.0,89,0.00,,---,0.00,VWS V13.01,2013-08-27 11:22:00,
2013-08-27 04:24:00,62.2,59.0,29.50,SW,228,0.0,0.0,89,0.00,,---,0.00,VWS V13.01,2013-08-27 11:24:00,
2013-08-27 04:25:00,62.2,59.0,29.50,SW,228,0.0,0.0,89,0.00,,---,0.00,VWS V13.01,2013-08-27 11:25:00,
2013-08-27 04:26:00,62.2,59.0,29.50,SW,228,0.0,0.0,89,0.00,,---,0.00,VWS V13.01,2013-08-27 11:26:00,
2013-08-27 04:27:00,62.2,59.0,29.50,SW,228,0.0,0.0,89,0.00,,---,0.00,VWS V13.01,2013-08-27 11:27:00,
2013-08-27 04:29:00,62.2,59.0,29.50,SW,228,0.0,0.0,89,0.00,,---,0.00,VWS V13.01,2013-08-27 11:29:00,
2013-08-27 04:31:00,62.2,59.0,29.50,SW,228,0.0,0.0,89,0.00,,---,0.00,VWS V13.01,2013-08-27 11:31:00,
2013-08-27 04:32:00,62.2,59.0,29.50,SW,228,0.0,0.0,89,0.00,,---,0.00,VWS V13.01,2013-08-27 11:32:00,
2013-08-27 04:34:00,62.4,58.8,29.50,SW,228,0.0,0.0,88,0.00,,---,0.00,VWS V13.01,2013-08-27 11:34:00,
2013-08-27 04:36:00,62.4,58.8,29.50,SW,228,0.0,0.0,88,0.00,,---,0.00,VWS V13.01,2013-08-27 11:36:00,
2013-08-27 04:37:00,62.4,58.8,29.50,SW,228,0.0,0.0,88,0.00,,---,0.00,VWS V13.01,2013-08-27 11:37:00,
2013-08-27 04:39:00,62.2,58.7,29.50,SW,228,0.0,0.0,88,0.00,,---,0.00,VWS V13.01,2013-08-27 11:39:00,
2013-08-27 04:41:00,62.2,58.7,29.50,SW,228,0.0,0.0,88,0.00,,---,0.00,VWS V13.01,2013-08-27 11:41:00,
2013-08-27 04:42:00,62.2,59.0,29.50,SW,228,0.0,0.0,89,0.00,,---,0.00,VWS V13.01,2013-08-27 11:42:00,
2013-08-27 04:44:00,62.2,59.0,29.50,SW,228,0.0,0.0,89,0.00,,---,0.00,VWS V13.01,2013-08-27 11:44:00,
2013-08-27 04:46:00,62.2,59.0,29.50,SW,228,0.0,0.0,89,0.00,,---,0.00,VWS V13.01,2013-08-27 11:46:00,
2013-08-27 04:47:00,62.1,58.8,29.50,SW,228,0.0,0.0,89,0.00,,---,0.00,VWS V13.01,2013-08-27 11:47:00,
2013-08-27 04:48:00,61.9,58.6,29.50,SW,228,0.0,0.0,89,0.00,,---,0.00,VWS V13.01,2013-08-27 11:48:00,
2013-08-27 04:49:00,61.9,58.9,29.50,SW,228,0.0,0.0,90,0.00,,---,0.00,VWS V13.01,2013-08-27 11:49:00,
2013-08-27 04:51:00,61.9,58.9,29.50,SW,228,0.0,0.0,90,0.00,,---,0.00,VWS V13.01,2013-08-27 11:51:00,
2013-08-27 04:52:00,61.9,58.9,29.50,SW,228,0.0,0.0,90,0.00,,---,0.00,VWS V13.01,2013-08-27 11:52:00,
2013-08-27 04:53:00,61.9,58.9,29.50,SW,228,0.0,0.0,90,0.00,,---,0.00,VWS V13.01,2013-08-27 11:53:00,
2013-08-27 04:54:00,61.9,58.9,29.50,SW,228,0.0,0.0,90,0.00,,---,0.00,VWS V13.01,2013-08-27 11:54:00,
2013-08-27 04:57:00,62.1,59.1,29.50,SW,228,0.0,0.0,90,0.00,,---,0.00,VWS V13.01,2013-08-27 11:57:00,
2013-08-27 04:58:00,62.1,58.8,29.50,SW,228,0.0,0.0,89,0.00,,---,0.00,VWS V13.01,2013-08-27 11:58:00,
2013-08-27 04:59:00,62.1,58.8,29.50,SW,228,0.0,0.0,89,0.00,,---,0.00,VWS V13.01,2013-08-27 11:59:00,
2013-08-27 05:02:00,62.2,59.0,29.50,SW,228,0.0,0.0,89,0.00,,---,0.00,VWS V13.01,2013-08-27 12:02:00,
2013-08-27 05:03:00,62.2,58.7,29.50,SW,228,0.0,0.0,88,0.00,,---,0.00,VWS V13.01,2013-08-27 12:03:00,
2013-08-27 05:04:00,62.2,59.0,29.50,SW,228,0.0,0.0,89,0.00,,---,0.00,VWS V13.01,2013-08-27 12:04:00,
2013-08-27 05:07:00,62.2,59.0,29.50,SW,228,0.0,0.0,89,0.00,,---,0.00,VWS V13.01,2013-08-27 12:07:00,
2013-08-27 05:08:00,62.2,59.0,29.50,SW,228,0.0,0.0,89,0.00,,---,0.00,VWS V13.01,2013-08-27 12:08:00,
2013-08-27 05:09:00,62.1,59.1,29.50,SW,228,0.0,0.0,90,0.00,,---,0.00,VWS V13.01,2013-08-27 12:09:00,
2013-08-27 05:12:00,61.9,58.9,29.50,SW,228,0.0,0.0,90,0.00,,---,0.00,VWS V13.01,2013-08-27 12:12:00,
2013-08-27 05:13:00,61.9,58.9,29.50,SW,228,0.0,0.0,90,0.00,,---,0.00,VWS V13.01,2013-08-27 12:13:00,
2013-08-27 05:14:00,62.1,59.1,29.50,SW,228,0.0,0.0,90,0.00,,---,0.00,VWS V13.01,2013-08-27 12:14:00,
2013-08-27 05:17:00,62.1,58.8,29.50,SW,228,0.0,0.0,89,0.00,,---,0.00,VWS V13.01,2013-08-27 12:17:00,
2013-08-27 05:18:00,62.1,58.8,29.50,SW,228,0.0,0.0,89,0.00,,---,0.00,VWS V13.01,2013-08-27 12:18:00,
2013-08-27 05:19:00,62.2,59.0,29.50,SW,228,0.0,0.0,89,0.00,,---,0.00,VWS V13.01,2013-08-27 12:19:00,
2013-08-27 05:22:00,62.2,59.0,29.50,SW,228,0.0,0.0,89,0.00,,---,0.00,VWS V13.01,2013-08-27 12:22:00,
2013-08-27 05:23:00,62.2,59.0,29.50,SW,228,0.0,0.0,89,0.00,,---,0.00,VWS V13.01,2013-08-27 12:23:00,
2013-08-27 05:24:00,62.2,59.0,29.50,SW,228,0.0,0.0,89,0.00,,---,0.00,VWS V13.01,2013-08-27 12:24:00,
2013-08-27 05:25:00,62.1,59.1,29.50,SW,228,0.0,0.0,90,0.00,,---,0.00,VWS V13.01,2013-08-27 12:25:00,
2013-08-27 05:27:00,61.9,58.9,29.50,SW,228,0.0,0.0,90,0.00,,---,0.00,VWS V13.01,2013-08-27 12:27:00,
2013-08-27 05:28:00,61.9,58.9,29.50,SW,228,0.0,0.0,90,0.00,,---,0.00,VWS V13.01,2013-08-27 12:28:00,
2013-08-27 05:29:00,61.9,58.9,29.50,SW,228,0.0,0.0,90,0.00,,---,0.00,VWS V13.01,2013-08-27 12:29:00,
2013-08-27 05:30:00,61.9,58.9,29.50,SW,228,0.0,0.0,90,0.00,,---,0.00,VWS V13.01,2013-08-27 12:30:00,
2013-08-27 05:32:00,62.1,58.8,29.50,SW,228,0.0,0.0,89,0.00,,---,0.00,VWS V13.01,2013-08-27 12:32:00,
2013-08-27 05:33:00,62.1,58.8,29.50,SW,228,0.0,0.0,89,0.00,,---,0.00,VWS V13.01,2013-08-27 12:33:00,
2013-08-27 05:34:00,62.2,59.0,29.50,SW,228,0.0,0.0,89,0.00,,---,0.00,VWS V13.01,2013-08-27 12:34:00,
2013-08-27 05:35:00,62.2,59.0,29.50,SW,228,0.0,0.0,89,0.00,,---,0.00,VWS V13.01,2013-08-27 12:35:00,
2013-08-27 05:38:00,62.2,59.0,29.50,SW,228,0.0,0.0,89,0.00,,---,0.00,VWS V13.01,2013-08-27 12:38:00,
2013-08-27 05:40:00,62.1,58.8,29.50,SW,228,0.0,0.0,89,0.00,,---,0.00,VWS V13.01,2013-08-27 12:40:00,
2013-08-27 05:43:00,62.1,58.8,29.50,SW,228,0.0,0.0,89,0.00,,---,0.00,VWS V13.01,2013-08-27 12:43:00,
2013-08-27 05:45:00,62.1,59.1,29.50,SW,228,0.0,0.0,90,0.00,,---,0.00,VWS V13.01,2013-08-27 12:45:00,
2013-08-27 05:46:00,62.1,59.1,29.50,SW,228,0.0,0.0,90,0.00,,---,0.00,VWS V13.01,2013-08-27 12:46:00,
2013-08-27 05:48:00,62.1,59.1,29.50,SW,228,0.0,0.0,90,0.00,,---,0.00,VWS V13.01,2013-08-27 12:48:00,
2013-08-27 05:50:00,62.1,59.1,29.50,SW,228,0.0,0.0,90,0.00,,---,0.00,VWS V13.01,2013-08-27 12:50:00,
2013-08-27 05:51:00,62.1,59.1,29.50,SW,228,0.0,0.0,90,0.00,,---,0.00,VWS V13.01,2013-08-27 12:51:00,
2013-08-27 05:53:00,62.1,58.8,29.50,SW,228,0.0,0.0,89,0.00,,---,0.00,VWS V13.01,2013-08-27 12:53:00,
2013-08-27 05:55:00,62.1,58.8,29.50,SW,228,0.0,0.0,89,0.00,,---,0.00,VWS V13.01,2013-08-27 12:55:00,
2013-08-27 05:56:00,62.1,58.8,29.50,SW,228,0.0,0.0,89,0.00,,---,0.00,VWS V13.01,2013-08-27 12:56:00,
2013-08-27 05:58:00,62.1,58.8,29.50,SW,228,0.0,0.0,89,0.00,,---,0.00,VWS V13.01,2013-08-27 12:58:00,
2013-08-27 05:59:00,62.1,58.8,29.50,SW,228,0.0,0.0,89,0.00,,---,0.00,VWS V13.01,2013-08-27 12:59:00,
2013-08-27 06:00:00,61.9,58.9,29.50,SW,228,0.0,0.0,90,0.00,,---,0.00,VWS V13.01,2013-08-27 13:00:00,
2013-08-27 06:01:00,61.9,58.9,29.50,SW,228,0.0,0.0,90,0.00,,---,0.00,VWS V13.01,2013-08-27 13:01:00,
2013-08-27 06:04:00,61.9,58.9,29.50,SE,140,0.0,0.0,90,0.00,,---,0.00,VWS V13.01,2013-08-27 13:04:00,
2013-08-27 06:05:00,61.9,58.9,29.50,SE,140,0.0,0.0,90,0.00,,---,0.00,VWS V13.01,2013-08-27 13:05:00,
2013-08-27 06:06:00,61.9,58.9,29.50,SE,140,0.0,0.0,90,0.00,,---,0.00,VWS V13.01,2013-08-27 13:06:00,
2013-08-27 06:09:00,61.9,58.9,29.50,SE,140,0.0,0.0,90,0.00,,---,0.00,VWS V13.01,2013-08-27 13:09:00,
2013-08-27 06:10:00,61.7,58.7,29.50,SE,140,0.0,0.0,90,0.00,,---,0.00,VWS V13.01,2013-08-27 13:10:00,
2013-08-27 06:11:00,61.7,58.7,29.50,WSW,244,0.0,0.0,90,0.00,,---,0.00,VWS V13.01,2013-08-27 13:11:00,
2013-08-27 06:14:00,61.5,58.6,29.50,WSW,255,0.0,2.7,90,0.00,,---,0.00,VWS V13.01,2013-08-27 13:14:00,
2013-08-27 06:15:00,61.5,58.6,29.50,WSW,255,0.0,0.0,90,0.00,,---,0.00,VWS V13.01,2013-08-27 13:15:00,
2013-08-27 06:16:00,61.5,58.6,29.50,WSW,255,0.0,0.0,90,0.00,,---,0.00,VWS V13.01,2013-08-27 13:16:00,
2013-08-27 06:19:00,61.5,58.9,29.50,WSW,255,0.0,0.0,91,0.00,,---,0.00,VWS V13.01,2013-08-27 13:19:00,
2013-08-27 06:21:00,61.5,58.9,29.50,WSW,255,0.0,0.0,91,0.00,,---,0.00,VWS V13.01,2013-08-27 13:21:00,
2013-08-27 06:24:00,61.5,58.9,29.50,WSW,255,0.0,0.0,91,0.00,,---,0.00,VWS V13.01,2013-08-27 13:24:00,
2013-08-27 06:26:00,61.5,58.9,29.50,WSW,255,0.0,0.0,91,0.00,,---,0.00,VWS V13.01,2013-08-27 13:26:00,
2013-08-27 06:29:00,61.5,58.9,29.50,WSW,255,0.0,0.0,91,0.00,,---,0.00,VWS V13.01,2013-08-27 13:29:00,
2013-08-27 06:30:00,61.3,58.7,29.50,WSW,255,0.0,0.0,91,0.00,,---,0.00,VWS V13.01,2013-08-27 13:30:00,
2013-08-27 06:31:00,61.3,58.7,29.50,WSW,255,0.0,0.0,91,0.00,,---,0.00,VWS V13.01,2013-08-27 13:31:00,
2013-08-27 06:32:00,61.5,58.9,29.50,WSW,255,0.0,0.0,91,0.00,,---,0.00,VWS V13.01,2013-08-27 13:32:00,
2013-08-27 06:34:00,61.3,58.7,29.50,WSW,255,0.0,0.0,91,0.00,,---,0.00,VWS V13.01,2013-08-27 13:34:00,
2013-08-27 06:35:00,61.3,58.7,29.50,WSW,255,0.0,0.0,91,0.00,,---,0.00,VWS V13.01,2013-08-27 13:35:00,
2013-08-27 06:36:00,61.3,58.7,29.50,WSW,255,0.0,0.0,91,0.00,,---,0.00,VWS V13.01,2013-08-27 13:36:00,
2013-08-27 06:37:00,61.3,58.7,29.50,WSW,255,0.0,0.0,91,0.00,,---,0.00,VWS V13.01,2013-08-27 13:37:00,
2013-08-27 06:39:00,61.3,58.7,29.50,WSW,255,0.0,0.0,91,0.00,,---,0.00,VWS V13.01,2013-08-27 13:39:00,
2013-08-27 06:40:00,61.3,58.7,29.50,WSW,255,0.0,0.0,91,0.00,,---,0.00,VWS V13.01,2013-08-27 13:40:00,
2013-08-27 06:41:00,61.3,58.7,29.50,WSW,255,0.0,0.0,91,0.00,,---,0.00,VWS V13.01,2013-08-27 13:41:00,
2013-08-27 06:43:00,61.3,58.7,29.50,WSW,255,0.0,0.0,91,0.00,,---,0.00,VWS V13.01,2013-08-27 13:43:00,
2013-08-27 06:44:00,61.3,59.0,29.50,WSW,255,0.0,0.0,92,0.00,,---,0.00,VWS V13.01,2013-08-27 13:44:00,
2013-08-27 06:45:00,61.3,58.7,29.50,WSW,255,0.0,0.0,91,0.00,,---,0.00,VWS V13.01,2013-08-27 13:45:00,
2013-08-27 06:46:00,61.5,58.9,29.50,WSW,255,0.0,0.0,91,0.00,,---,0.00,VWS V13.01,2013-08-27 13:46:00,
2013-08-27 06:48:00,61.7,59.0,29.50,WSW,255,0.0,0.0,91,0.00,,---,0.00,VWS V13.01,2013-08-27 13:48:00,
2013-08-27 06:49:00,61.7,59.0,29.50,WSW,255,0.0,0.0,91,0.00,,---,0.00,VWS V13.01,2013-08-27 13:49:00,
2013-08-27 06:50:00,61.5,58.9,29.50,WSW,255,0.0,0.0,91,0.00,,---,0.00,VWS V13.01,2013-08-27 13:50:00,
2013-08-27 06:51:00,61.5,58.9,29.50,WSW,255,0.0,0.0,91,0.00,,---,0.00,VWS V13.01,2013-08-27 13:51:00,
2013-08-27 06:53:00,61.5,59.2,29.50,WSW,255,0.0,0.0,92,0.00,,---,0.00,VWS V13.01,2013-08-27 13:53:00,
2013-08-27 06:54:00,61.5,59.2,29.50,WSW,255,0.0,0.0,92,0.00,,---,0.00,VWS V13.01,2013-08-27 13:54:00,
2013-08-27 06:55:00,61.5,59.2,29.50,WSW,255,0.0,0.0,92,0.00,,---,0.00,VWS V13.01,2013-08-27 13:55:00,
2013-08-27 06:57:00,61.5,59.2,29.50,WSW,255,0.0,0.0,92,0.00,,---,0.00,VWS V13.01,2013-08-27 13:57:00,
2013-08-27 06:58:00,61.5,59.2,29.50,WSW,255,0.0,0.0,92,0.00,,---,0.00,VWS V13.01,2013-08-27 13:58:00,
2013-08-27 06:59:00,61.5,59.2,29.50,WSW,255,0.0,0.0,92,0.00,,---,0.00,VWS V13.01,2013-08-27 13:59:00,
2013-08-27 07:00:00,61.5,59.2,29.50,WSW,255,0.0,0.0,92,0.00,,---,0.00,VWS V13.01,2013-08-27 14:00:00,
2013-08-27 07:02:00,61.5,59.2,29.50,WSW,255,0.0,0.0,92,0.00,,---,0.00,VWS V13.01,2013-08-27 14:02:00,
2013-08-27 07:03:00,61.7,59.4,29.50,WSW,255,0.0,0.0,92,0.00,,---,0.00,VWS V13.01,2013-08-27 14:03:00,
2013-08-27 07:04:00,61.7,59.4,29.50,WSW,255,0.0,0.0,92,0.00,,---,0.00,VWS V13.01,2013-08-27 14:04:00,
2013-08-27 07:05:00,61.7,59.4,29.50,WSW,255,0.0,0.0,92,0.00,,---,0.00,VWS V13.01,2013-08-27 14:05:00,
2013-08-27 07:07:00,61.7,59.4,29.50,WSW,255,0.0,0.0,92,0.00,,---,0.00,VWS V13.01,2013-08-27 14:07:00,
2013-08-27 07:08:00,61.7,59.4,29.50,WSW,255,0.0,0.0,92,0.00,,---,0.00,VWS V13.01,2013-08-27 14:08:00,
2013-08-27 07:09:00,61.7,59.4,29.50,WSW,255,0.0,0.0,92,0.00,,---,0.00,VWS V13.01,2013-08-27 14:09:00,
2013-08-27 07:10:00,61.7,59.4,29.50,WSW,255,0.0,0.0,92,0.00,,---,0.00,VWS V13.01,2013-08-27 14:10:00,
2013-08-27 07:11:00,61.7,59.4,29.50,WSW,255,0.0,0.0,92,0.00,,---,0.00,VWS V13.01,2013-08-27 14:11:00,
2013-08-27 07:12:00,61.7,59.4,29.50,WSW,255,0.0,0.0,92,0.00,,---,0.00,VWS V13.01,2013-08-27 14:12:00,
2013-08-27 07:13:00,61.7,59.4,29.50,WSW,255,0.0,0.0,92,0.00,,---,0.00,VWS V13.01,2013-08-27 14:13:00,
2013-08-27 07:14:00,61.7,59.4,29.50,WSW,255,0.0,0.0,92,0.00,,---,0.00,VWS V13.01,2013-08-27 14:14:00,
2013-08-27 07:15:00,61.7,59.4,29.50,WSW,255,0.0,0.0,92,0.00,,---,0.00,VWS V13.01,2013-08-27 14:15:00,
2013-08-27 07:16:00,61.7,59.4,29.50,WSW,255,0.0,0.0,92,0.00,,---,0.00,VWS V13.01,2013-08-27 14:16:00,
2013-08-27 07:17:00,61.7,59.4,29.50,WSW,255,0.0,0.0,92,0.00,,---,0.00,VWS V13.01,2013-08-27 14:17:00,
2013-08-27 07:18:00,61.7,59.4,29.50,WSW,255,0.0,0.0,92,0.00,,---,0.00,VWS V13.01,2013-08-27 14:18:00,
2013-08-27 07:19:00,61.7,59.4,29.50,WSW,255,0.0,0.0,92,0.00,,---,0.00,VWS V13.01,2013-08-27 14:19:00,
2013-08-27 07:20:00,61.9,59.5,29.50,WSW,255,0.0,0.0,92,0.00,,---,0.00,VWS V13.01,2013-08-27 14:20:00,
2013-08-27 07:21:00,61.9,59.5,29.50,WSW,255,0.0,0.0,92,0.00,,---,0.00,VWS V13.01,2013-08-27 14:21:00,
2013-08-27 07:22:00,61.9,59.5,29.50,WSW,255,0.0,0.0,92,0.00,,---,0.00,VWS V13.01,2013-08-27 14:22:00,
2013-08-27 07:23:00,61.9,59.5,29.50,WSW,255,0.0,0.0,92,0.00,,---,0.00,VWS V13.01,2013-08-27 14:23:00,
2013-08-27 07:24:00,61.9,59.5,29.50,WSW,255,0.0,0.0,92,0.00,,---,0.00,VWS V13.01,2013-08-27 14:24:00,
2013-08-27 07:25:00,61.9,59.5,29.50,WSW,255,0.0,0.0,92,0.00,,---,0.00,VWS V13.01,2013-08-27 14:25:00,
2013-08-27 07:26:00,61.9,59.5,29.50,WSW,255,0.0,0.0,92,0.00,,---,0.00,VWS V13.01,2013-08-27 14:26:00,
2013-08-27 07:28:00,61.9,59.5,29.50,WSW,255,0.0,0.0,92,0.00,,---,0.00,VWS V13.01,2013-08-27 14:28:00,
2013-08-27 07:29:00,62.1,59.7,29.50,South,170,0.0,0.0,92,0.00,,---,0.00,VWS V13.01,2013-08-27 14:29:00,
2013-08-27 07:31:00,62.1,59.7,29.50,South,170,0.0,0.0,92,0.00,,---,0.00,VWS V13.01,2013-08-27 14:31:00,
2013-08-27 07:32:00,62.1,59.7,29.50,South,170,0.0,0.0,92,0.00,,---,0.00,VWS V13.01,2013-08-27 14:32:00,
2013-08-27 07:33:00,62.1,59.7,29.50,South,170,0.0,0.0,92,0.00,,---,0.00,VWS V13.01,2013-08-27 14:33:00,
2013-08-27 07:34:00,62.2,59.9,29.50,South,170,0.0,0.0,92,0.00,,---,0.00,VWS V13.01,2013-08-27 14:34:00,
2013-08-27 07:36:00,62.2,59.9,29.50,South,170,0.0,0.0,92,0.00,,---,0.00,VWS V13.01,2013-08-27 14:36:00,
2013-08-27 07:37:00,62.2,59.9,29.50,South,170,0.0,0.0,92,0.00,,---,0.00,VWS V13.01,2013-08-27 14:37:00,
2013-08-27 07:38:00,62.2,59.9,29.50,South,170,0.0,0.0,92,0.00,,---,0.00,VWS V13.01,2013-08-27 14:38:00,
2013-08-27 07:39:00,62.2,59.9,29.50,South,170,0.0,0.0,92,0.00,,---,0.00,VWS V13.01,2013-08-27 14:39:00,
2013-08-27 07:40:00,62.2,59.9,29.50,South,170,0.0,0.0,92,0.00,,---,0.00,VWS V13.01,2013-08-27 14:40:00,
2013-08-27 07:41:00,62.2,59.9,29.50,South,170,0.0,0.0,92,0.00,,---,0.00,VWS V13.01,2013-08-27 14:41:00,
2013-08-27 07:42:00,62.2,59.9,29.50,South,170,0.0,0.0,92,0.00,,---,0.00,VWS V13.01,2013-08-27 14:42:00,
2013-08-27 07:43:00,62.2,59.9,29.50,South,170,0.0,0.0,92,0.00,,---,0.00,VWS V13.01,2013-08-27 14:43:00,
2013-08-27 07:44:00,62.4,60.1,29.50,South,170,0.0,0.0,92,0.00,,---,0.00,VWS V13.01,2013-08-27 14:44:00,
2013-08-27 07:45:00,62.4,59.8,29.50,South,170,0.0,0.0,91,0.00,,---,0.00,VWS V13.01,2013-08-27 14:45:00,
2013-08-27 07:46:00,62.4,59.8,29.50,South,170,0.0,0.0,91,0.00,,---,0.00,VWS V13.01,2013-08-27 14:46:00,
2013-08-27 07:47:00,62.4,59.8,29.50,South,170,0.0,0.0,91,0.00,,---,0.00,VWS V13.01,2013-08-27 14:47:00,
2013-08-27 07:48:00,62.4,59.8,29.50,South,170,0.0,0.0,91,0.00,,---,0.00,VWS V13.01,2013-08-27 14:48:00,
2013-08-27 07:49:00,62.4,59.8,29.50,South,170,0.0,0.0,91,0.00,,---,0.00,VWS V13.01,2013-08-27 14:49:00,
2013-08-27 07:50:00,62.4,59.8,29.50,South,170,0.0,0.0,91,0.00,,---,0.00,VWS V13.01,2013-08-27 14:50:00,
2013-08-27 07:51:00,62.4,59.8,29.50,South,170,0.0,0.0,91,0.00,,---,0.00,VWS V13.01,2013-08-27 14:51:00,
2013-08-27 07:52:00,62.4,59.8,29.50,South,170,0.0,0.0,91,0.00,,---,0.00,VWS V13.01,2013-08-27 14:52:00,
2013-08-27 07:53:00,62.4,59.8,29.50,South,170,0.0,0.0,91,0.00,,---,0.00,VWS V13.01,2013-08-27 14:53:00,
2013-08-27 07:55:00,62.4,59.8,29.50,South,170,0.0,0.0,91,0.00,,---,0.00,VWS V13.01,2013-08-27 14:55:00,
2013-08-27 07:56:00,62.4,59.8,29.50,South,170,0.0,0.0,91,0.00,,---,0.00,VWS V13.01,2013-08-27 14:56:00,
2013-08-27 07:57:00,62.4,59.8,29.50,South,170,0.0,0.0,91,0.00,,---,0.00,VWS V13.01,2013-08-27 14:57:00,
2013-08-27 07:58:00,62.4,59.8,29.50,South,170,0.0,0.0,91,0.00,,---,0.00,VWS V13.01,2013-08-27 14:58:00,
2013-08-27 08:00:00,62.4,59.8,29.50,South,170,0.0,0.0,91,0.00,,---,0.00,VWS V13.01,2013-08-27 15:00:00,
2013-08-27 08:01:00,62.6,59.6,29.50,South,170,0.0,0.0,90,0.00,,---,0.00,VWS V13.01,2013-08-27 15:01:00,
2013-08-27 08:02:00,62.6,59.9,29.50,SW,226,0.0,0.0,91,0.00,,---,0.00,VWS V13.01,2013-08-27 15:02:00,
2013-08-27 08:03:00,62.6,59.9,29.50,SW,226,0.0,0.0,91,0.00,,---,0.00,VWS V13.01,2013-08-27 15:03:00,
2013-08-27 08:05:00,62.8,60.1,29.50,South,173,0.0,0.0,91,0.00,,---,0.00,VWS V13.01,2013-08-27 15:05:00,
2013-08-27 08:06:00,62.8,60.1,29.50,South,173,0.0,0.0,91,0.00,,---,0.00,VWS V13.01,2013-08-27 15:06:00,
2013-08-27 08:07:00,63.0,60.3,29.50,North,353,0.0,0.0,91,0.00,,---,0.00,VWS V13.01,2013-08-27 15:07:00,
2013-08-27 08:09:00,63.1,60.5,29.50,East,97,0.0,3.1,91,0.00,,---,0.00,VWS V13.01,2013-08-27 15:09:00,
2013-08-27 08:10:00,63.1,60.2,29.50,East,97,0.0,0.0,90,0.00,,---,0.00,VWS V13.01,2013-08-27 15:10:00,
2013-08-27 08:11:00,63.3,60.3,29.50,East,97,0.0,0.0,90,0.00,,---,0.00,VWS V13.01,2013-08-27 15:11:00,
2013-08-27 08:12:00,63.5,60.5,29.50,SE,135,0.0,0.0,90,0.00,,---,0.00,VWS V13.01,2013-08-27 15:12:00,
2013-08-27 08:13:00,63.5,60.5,29.50,SE,135,0.0,0.0,90,0.00,,---,0.00,VWS V13.01,2013-08-27 15:13:00,
2013-08-27 08:14:00,63.5,60.5,29.50,SE,135,0.0,0.0,90,0.00,,---,0.00,VWS V13.01,2013-08-27 15:14:00,
2013-08-27 08:15:00,63.7,60.7,29.50,East,80,0.0,2.7,90,0.00,,---,0.00,VWS V13.01,2013-08-27 15:15:00,
2013-08-27 08:16:00,63.9,60.9,29.50,South,180,4.0,4.0,90,0.00,,---,0.00,VWS V13.01,2013-08-27 15:16:00,
2013-08-27 08:17:00,63.9,60.9,29.50,SSE,166,0.0,4.0,90,0.00,,---,0.00,VWS V13.01,2013-08-27 15:17:00,
2013-08-27 08:18:00,63.9,60.9,29.50,SSE,166,0.0,0.0,90,0.00,,---,0.00,VWS V13.01,2013-08-27 15:18:00,
2013-08-27 08:19:00,64.0,60.7,29.50,SSE,158,0.0,0.0,89,0.00,,---,0.00,VWS V13.01,2013-08-27 15:19:00,
2013-08-27 08:20:00,64.2,60.9,29.50,SSE,158,0.0,0.0,89,0.00,,---,0.00,VWS V13.01,2013-08-27 15:20:00,
2013-08-27 08:21:00,64.2,60.9,29.50,ENE,58,2.7,3.6,89,0.00,,---,0.00,VWS V13.01,2013-08-27 15:21:00,
2013-08-27 08:22:00,64.4,61.1,29.50,ENE,58,0.0,0.0,89,0.00,,---,0.00,VWS V13.01,2013-08-27 15:22:00,
2013-08-27 08:23:00,64.4,61.1,29.50,ENE,75,2.7,3.6,89,0.00,,---,0.00,VWS V13.01,2013-08-27 15:23:00,
2013-08-27 08:24:00,64.4,60.8,29.50,ENE,74,0.0,0.0,88,0.00,,---,0.00,VWS V13.01,2013-08-27 15:24:00,
2013-08-27 08:25:00,64.6,61.0,29.50,ENE,75,0.0,0.0,88,0.00,,---,0.00,VWS V13.01,2013-08-27 15:25:00,
2013-08-27 08:26:00,64.8,61.1,29.50,SSE,147,3.1,3.1,88,0.00,,---,0.00,VWS V13.01,2013-08-27 15:26:00,
2013-08-27 08:27:00,64.8,61.1,29.50,SSE,147,0.0,2.2,88,0.00,,---,0.00,VWS V13.01,2013-08-27 15:27:00,
2013-08-27 08:28:00,64.8,61.1,29.50,SSE,147,0.0,0.0,88,0.00,,---,0.00,VWS V13.01,2013-08-27 15:28:00,
2013-08-27 08:29:00,64.9,61.3,29.50,NW,316,2.7,2.7,88,0.00,,---,0.00,VWS V13.01,2013-08-27 15:29:00,
2013-08-27 08:30:00,64.9,61.0,29.50,NW,308,0.0,0.0,87,0.00,,---,0.00,VWS V13.01,2013-08-27 15:30:00,
2013-08-27 08:31:00,64.9,61.0,29.50,East,79,2.2,2.7,87,0.00,,---,0.00,VWS V13.01,2013-08-27 15:31:00,
2013-08-27 08:32:00,64.9,61.0,29.50,East,79,0.0,2.2,87,0.00,,---,0.00,VWS V13.01,2013-08-27 15:32:00,
2013-08-27 08:33:00,65.1,61.2,29.50,SE,145,2.2,2.2,87,0.00,,---,0.00,VWS V13.01,2013-08-27 15:33:00,
2013-08-27 08:34:00,65.1,61.2,29.50,SE,145,0.0,0.0,87,0.00,,---,0.00,VWS V13.01,2013-08-27 15:34:00,
2013-08-27 08:35:00,65.1,61.2,29.50,ESE,107,0.0,0.0,87,0.00,,---,0.00,VWS V13.01,2013-08-27 15:35:00,
2013-08-27 08:36:00,65.3,61.3,29.50,East,95,0.0,0.0,87,0.00,,---,0.00,VWS V13.01,2013-08-27 15:36:00,
2013-08-27 08:37:00,65.3,61.3,29.50,East,95,0.0,0.0,87,0.00,,---,0.00,VWS V13.01,2013-08-27 15:37:00,
2013-08-27 08:38:00,65.5,61.2,29.50,SE,143,4.0,4.0,86,0.00,,---,0.00,VWS V13.01,2013-08-27 15:38:00,
2013-08-27 08:39:00,65.5,61.2,29.50,ESE,122,0.0,2.2,86,0.00,,---,0.00,VWS V13.01,2013-08-27 15:39:00,
2013-08-27 08:40:00,65.5,60.9,29.50,ENE,73,0.0,0.0,85,0.00,,---,0.00,VWS V13.01,2013-08-27 15:40:00,
2013-08-27 08:42:00,65.5,60.9,29.50,East,97,0.0,2.7,85,0.00,,---,0.00,VWS V13.01,2013-08-27 15:42:00,
2013-08-27 08:43:00,65.7,61.0,29.50,East,88,4.0,4.0,85,0.00,,---,0.00,VWS V13.01,2013-08-27 15:43:00,
2013-08-27 08:44:00,65.7,60.7,29.50,SE,129,0.0,3.6,84,0.00,,---,0.00,VWS V13.01,2013-08-27 15:44:00,
2013-08-27 08:46:00,65.7,60.7,29.50,SE,145,2.2,3.6,84,0.00,,---,0.00,VWS V13.01,2013-08-27 15:46:00,
2013-08-27 08:47:00,65.7,60.7,29.50,East,83,3.1,3.1,84,0.00,,---,0.00,VWS V13.01,2013-08-27 15:47:00,
2013-08-27 08:48:00,65.8,60.9,29.50,SE,144,0.0,2.2,84,0.00,,---,0.00,VWS V13.01,2013-08-27 15:48:00,
2013-08-27 08:50:00,65.8,60.9,29.50,SE,144,0.0,0.0,84,0.00,,---,0.00,VWS V13.01,2013-08-27 15:50:00,
2013-08-27 08:51:00,65.8,60.5,29.50,SE,144,0.0,0.0,83,0.00,,---,0.00,VWS V13.01,2013-08-27 15:51:00,
2013-08-27 08:52:00,65.8,60.5,29.50,SSE,149,0.0,0.0,83,0.00,,---,0.00,VWS V13.01,2013-08-27 15:52:00,
2013-08-27 08:53:00,66.0,60.7,29.50,SSE,149,0.0,0.0,83,0.00,,---,0.00,VWS V13.01,2013-08-27 15:53:00,
2013-08-27 08:55:00,66.0,60.7,29.50,WSW,251,2.2,2.2,83,0.00,,---,0.00,VWS V13.01,2013-08-27 15:55:00,
2013-08-27 08:56:00,66.2,60.9,29.50,SW,229,2.7,2.7,83,0.00,,---,0.00,VWS V13.01,2013-08-27 15:56:00,
2013-08-27 08:57:00,66.2,60.9,29.50,SSW,198,0.0,2.7,83,0.00,,---,0.00,VWS V13.01,2013-08-27 15:57:00,
2013-08-27 08:59:00,66.4,60.7,29.50,SSW,198,0.0,0.0,82,0.00,,---,0.00,VWS V13.01,2013-08-27 15:59:00,
2013-08-27 09:00:00,66.4,60.7,29.50,SSW,198,0.0,0.0,82,0.00,,---,0.00,VWS V13.01,2013-08-27 16:00:00,
2013-08-27 09:01:00,66.6,60.9,29.50,SSW,211,3.6,3.6,82,0.00,,---,0.00,VWS V13.01,2013-08-27 16:01:00,
2013-08-27 09:02:00,66.6,60.9,29.50,SW,215,2.7,3.1,82,0.00,,---,0.00,VWS V13.01,2013-08-27 16:02:00,
2013-08-27 09:04:00,66.7,61.1,29.50,SW,215,0.0,0.0,82,0.00,,---,0.00,VWS V13.01,2013-08-27 16:04:00,
2013-08-27 09:05:00,66.9,61.2,29.50,SW,215,0.0,0.0,82,0.00,,---,0.00,VWS V13.01,2013-08-27 16:05:00,
2013-08-27 09:06:00,66.9,61.2,29.50,SE,142,4.0,4.0,82,0.00,,---,0.00,VWS V13.01,2013-08-27 16:06:00,
2013-08-27 09:07:00,67.1,61.4,29.50,ESE,118,2.7,3.6,82,0.00,,---,0.00,VWS V13.01,2013-08-27 16:07:00,
2013-08-27 09:08:00,67.1,61.4,29.50,ESE,120,2.2,2.2,82,0.00,,---,0.00,VWS V13.01,2013-08-27 16:08:00,
2013-08-27 09:09:00,67.1,61.4,29.50,SSW,207,2.2,2.2,82,0.00,,---,0.00,VWS V13.01,2013-08-27 16:09:00,
2013-08-27 09:10:00,67.3,61.3,29.50,East,93,0.0,3.1,81,0.00,,---,0.00,VWS V13.01,2013-08-27 16:10:00,
2013-08-27 09:11:00,67.3,61.3,29.50,WSW,239,3.1,3.1,81,0.00,,---,0.00,VWS V13.01,2013-08-27 16:11:00,
2013-08-27 09:12:00,67.3,61.3,29.50,SSE,163,0.0,2.2,81,0.00,,---,0.00,VWS V13.01,2013-08-27 16:12:00,
2013-08-27 09:13:00,67.5,61.4,29.50,SSE,163,0.0,0.0,81,0.00,,---,0.00,VWS V13.01,2013-08-27 16:13:00,
2013-08-27 09:14:00,67.5,61.4,29.50,SSE,162,2.7,2.7,81,0.00,,---,0.00,VWS V13.01,2013-08-27 16:14:00,
2013-08-27 09:15:00,67.5,61.4,29.50,SSE,156,2.7,4.0,81,0.00,,---,0.00,VWS V13.01,2013-08-27 16:15:00,
2013-08-27 09:16:00,67.6,61.6,29.50,SSE,156,0.0,0.0,81,0.00,,---,0.00,VWS V13.01,2013-08-27 16:16:00,
2013-08-27 09:17:00,67.6,61.6,29.50,SSW,206,0.0,0.0,81,0.00,,---,0.00,VWS V13.01,2013-08-27 16:17:00,
2013-08-27 09:18:00,67.6,61.3,29.50,SSW,199,0.0,0.0,80,0.00,,---,0.00,VWS V13.01,2013-08-27 16:18:00,
2013-08-27 09:19:00,67.6,61.3,29.50,West,272,3.1,3.6,80,0.00,,---,0.00,VWS V13.01,2013-08-27 16:19:00,
2013-08-27 09:20:00,67.8,61.4,29.50,WSW,240,0.0,3.1,80,0.00,,---,0.00,VWS V13.01,2013-08-27 16:20:00,
2013-08-27 09:22:00,67.8,61.4,29.50,SE,143,0.0,2.7,80,0.00,,---,0.00,VWS V13.01,2013-08-27 16:22:00,
2013-08-27 09:23:00,68.0,61.2,29.50,SE,143,0.0,0.0,79,0.00,,---,0.00,VWS V13.01,2013-08-27 16:23:00,
2013-08-27 09:24:00,68.0,61.2,29.50,WSW,258,0.0,2.7,79,0.00,,---,0.00,VWS V13.01,2013-08-27 16:24:00,
2013-08-27 09:26:00,68.2,61.4,29.50,WSW,258,0.0,0.0,79,0.00,,---,0.00,VWS V13.01,2013-08-27 16:26:00,
2013-08-27 09:27:00,68.2,61.4,29.50,WSW,258,0.0,0.0,79,0.00,,---,0.00,VWS V13.01,2013-08-27 16:27:00,
2013-08-27 09:28:00,68.2,61.4,29.50,WSW,258,0.0,0.0,79,0.00,,---,0.00,VWS V13.01,2013-08-27 16:28:00,
2013-08-27 09:30:00,68.4,61.6,29.50,SE,137,0.0,0.0,79,0.00,,---,0.00,VWS V13.01,2013-08-27 16:30:00,
2013-08-27 09:31:00,68.4,61.6,29.50,WSW,258,4.0,4.0,79,0.00,,---,0.00,VWS V13.01,2013-08-27 16:31:00,
2013-08-27 09:32:00,68.5,61.8,29.50,WSW,258,2.2,2.2,79,0.00,,---,0.00,VWS V13.01,2013-08-27 16:32:00,
2013-08-27 09:33:00,68.7,62.0,29.50,West,261,0.0,2.7,79,0.00,,---,0.00,VWS V13.01,2013-08-27 16:33:00,
2013-08-27 09:35:00,68.9,61.8,29.50,SW,214,2.7,3.6,78,0.00,,---,0.00,VWS V13.01,2013-08-27 16:35:00,
2013-08-27 09:36:00,68.9,61.8,29.50,SE,136,0.0,2.7,78,0.00,,---,0.00,VWS V13.01,2013-08-27 16:36:00,
2013-08-27 09:37:00,69.1,61.9,29.50,SE,136,0.0,0.0,78,0.00,,---,0.00,VWS V13.01,2013-08-27 16:37:00,
2013-08-27 09:38:00,69.1,61.9,29.50,SE,143,0.0,0.0,78,0.00,,---,0.00,VWS V13.01,2013-08-27 16:38:00,
2013-08-27 09:39:00,69.1,61.6,29.50,SE,140,0.0,0.0,77,0.00,,---,0.00,VWS V13.01,2013-08-27 16:39:00,
2013-08-27 09:40:00,69.3,61.8,29.50,East,90,3.1,3.1,77,0.00,,---,0.00,VWS V13.01,2013-08-27 16:40:00,
2013-08-27 09:41:00,69.3,61.8,29.50,East,90,0.0,0.0,77,0.00,,---,0.00,VWS V13.01,2013-08-27 16:41:00,
2013-08-27 09:42:00,69.4,61.5,29.50,East,90,0.0,0.0,76,0.00,,---,0.00,VWS V13.01,2013-08-27 16:42:00,
2013-08-27 09:43:00,69.6,61.7,29.50,ESE,103,0.0,0.0,76,0.00,,---,0.00,VWS V13.01,2013-08-27 16:43:00,
2013-08-27 09:44:00,69.6,61.7,29.50,SE,127,2.7,2.7,76,0.00,,---,0.00,VWS V13.01,2013-08-27 16:44:00,
2013-08-27 09:45:00,69.6,61.7,29.50,East,93,2.2,2.7,76,0.00,,---,0.00,VWS V13.01,2013-08-27 16:45:00,
2013-08-27 09:46:00,69.8,61.5,29.50,East,89,0.0,2.7,75,0.00,,---,0.00,VWS V13.01,2013-08-27 16:46:00,
2013-08-27 09:47:00,69.8,61.5,29.50,ENE,71,0.0,2.7,75,0.00,,---,0.00,VWS V13.01,2013-08-27 16:47:00,
2013-08-27 09:48:00,69.8,61.5,29.50,ENE,71,0.0,0.0,75,0.00,,---,0.00,VWS V13.01,2013-08-27 16:48:00,
2013-08-27 09:49:00,69.8,61.5,29.50,ENE,70,0.0,0.0,75,0.00,,---,0.00,VWS V13.01,2013-08-27 16:49:00,
2013-08-27 09:50:00,69.8,61.5,29.50,ENE,70,0.0,0.0,75,0.00,,---,0.00,VWS V13.01,2013-08-27 16:50:00,
2013-08-27 09:51:00,69.8,61.5,29.50,NNE,30,2.2,2.2,75,0.00,,---,0.00,VWS V13.01,2013-08-27 16:51:00,
2013-08-27 09:52:00,70.0,61.7,29.50,ESE,105,3.1,3.1,75,0.00,,---,0.00,VWS V13.01,2013-08-27 16:52:00,
2013-08-27 09:53:00,70.2,61.9,29.50,SSE,159,2.7,3.1,75,0.00,,---,0.00,VWS V13.01,2013-08-27 16:53:00,
2013-08-27 09:54:00,70.2,61.9,29.50,SE,145,3.1,3.1,75,0.00,,---,0.00,VWS V13.01,2013-08-27 16:54:00,
2013-08-27 09:55:00,70.2,61.9,29.50,South,189,2.7,2.7,75,0.00,,---,0.00,VWS V13.01,2013-08-27 16:55:00,
2013-08-27 09:56:00,70.3,62.0,29.50,West,267,4.0,4.0,75,0.00,,---,0.00,VWS V13.01,2013-08-27 16:56:00,
2013-08-27 09:57:00,70.3,61.7,29.50,SW,216,2.7,3.1,74,0.00,,---,0.00,VWS V13.01,2013-08-27 16:57:00,
2013-08-27 09:58:00,70.5,61.8,29.50,WSW,238,0.0,3.6,74,0.00,,---,0.00,VWS V13.01,2013-08-27 16:58:00,
2013-08-27 09:59:00,70.3,61.3,29.50,SW,233,3.1,3.1,73,0.00,,---,0.00,VWS V13.01,2013-08-27 16:59:00,
2013-08-27 10:00:00,70.3,60.9,29.50,West,281,2.7,2.7,72,0.00,,---,0.00,VWS V13.01,2013-08-27 17:00:00,
2013-08-27 10:01:00,70.3,60.9,29.50,WSW,247,4.0,5.4,72,0.00,,---,0.00,VWS V13.01,2013-08-27 17:01:00,
2013-08-27 10:03:00,70.3,60.5,29.50,NNW,328,4.9,6.3,71,0.00,,---,0.00,VWS V13.01,2013-08-27 17:03:00,
2013-08-27 10:04:00,70.3,60.5,29.50,NW,316,3.1,4.0,71,0.00,,---,0.00,VWS V13.01,2013-08-27 17:04:00,
2013-08-27 10:05:00,70.3,60.5,29.50,WSW,238,4.9,4.9,71,0.00,,---,0.00,VWS V13.01,2013-08-27 17:05:00,
2013-08-27 10:06:00,70.3,60.5,29.50,South,169,3.1,3.1,71,0.00,,---,0.00,VWS V13.01,2013-08-27 17:06:00,
2013-08-27 10:08:00,70.3,60.5,29.50,WSW,244,2.7,3.1,71,0.00,,---,0.00,VWS V13.01,2013-08-27 17:08:00,
2013-08-27 10:09:00,70.3,60.5,29.50,SW,234,2.7,3.1,71,0.00,,---,0.00,VWS V13.01,2013-08-27 17:09:00,
2013-08-27 10:11:00,70.3,60.1,29.50,West,268,3.1,3.1,70,0.00,,---,0.00,VWS V13.01,2013-08-27 17:11:00,
2013-08-27 10:13:00,70.5,60.3,29.50,West,274,4.0,4.0,70,0.00,,---,0.00,VWS V13.01,2013-08-27 17:13:00,
2013-08-27 10:14:00,70.5,60.3,29.50,West,274,4.0,4.0,70,0.00,,---,0.00,VWS V13.01,2013-08-27 17:14:00,
2013-08-27 10:15:00,70.5,60.3,29.50,SW,229,3.6,5.4,70,0.00,,---,0.00,VWS V13.01,2013-08-27 17:15:00,
2013-08-27 10:16:00,70.5,60.3,29.50,West,268,5.8,7.6,70,0.00,,---,0.00,VWS V13.01,2013-08-27 17:16:00,
2013-08-27 10:17:00,70.5,60.3,29.50,WSW,252,3.6,3.6,70,0.00,,---,0.00,VWS V13.01,2013-08-27 17:17:00,
2013-08-27 10:19:00,70.5,60.3,29.50,West,277,3.6,3.6,70,0.00,,---,0.00,VWS V13.01,2013-08-27 17:19:00,
2013-08-27 10:20:00,70.7,60.0,29.50,WNW,293,2.7,4.0,69,0.00,,---,0.00,VWS V13.01,2013-08-27 17:20:00,
2013-08-27 10:21:00,70.9,60.6,29.50,SW,224,3.1,4.0,70,0.00,,---,0.00,VWS V13.01,2013-08-27 17:21:00,
2013-08-27 10:22:00,71.1,60.8,29.50,WSW,256,3.6,3.6,70,0.00,,---,0.00,VWS V13.01,2013-08-27 17:22:00,
2013-08-27 10:24:00,71.2,60.6,29.50,SSE,164,2.7,4.0,69,0.00,,---,0.00,VWS V13.01,2013-08-27 17:24:00,
2013-08-27 10:25:00,71.4,60.7,29.50,SE,143,0.0,2.2,69,0.00,,---,0.00,VWS V13.01,2013-08-27 17:25:00,
2013-08-27 10:26:00,71.4,60.7,29.50,South,176,4.9,8.1,69,0.00,,---,0.00,VWS V13.01,2013-08-27 17:26:00,
2013-08-27 10:27:00,71.6,60.5,29.50,West,274,3.1,3.1,68,0.00,,---,0.00,VWS V13.01,2013-08-27 17:27:00,
2013-08-27 10:29:00,71.4,60.3,29.50,WSW,258,0.0,5.4,68,0.00,,---,0.00,VWS V13.01,2013-08-27 17:29:00,
2013-08-27 10:30:00,71.6,60.5,29.50,West,260,0.0,0.0,68,0.00,,---,0.00,VWS V13.01,2013-08-27 17:30:00,
2013-08-27 10:31:00,72.0,60.8,29.50,SSE,167,4.0,4.0,68,0.00,,---,0.00,VWS V13.01,2013-08-27 17:31:00,
2013-08-27 10:32:00,72.0,60.8,29.50,SSE,155,2.7,3.1,68,0.00,,---,0.00,VWS V13.01,2013-08-27 17:32:00,
2013-08-27 10:34:00,72.1,61.0,29.50,SW,229,0.0,0.0,68,0.00,,---,0.00,VWS V13.01,2013-08-27 17:34:00,
2013-08-27 10:35:00,72.3,61.2,29.50,SSE,155,3.6,3.6,68,0.00,,---,0.00,VWS V13.01,2013-08-27 17:35:00,
2013-08-27 10:37:00,72.9,61.7,29.50,West,261,5.4,5.4,68,0.00,,---,0.00,VWS V13.01,2013-08-27 17:37:00,
2013-08-27 10:39:00,73.0,61.5,29.50,SSE,160,2.2,3.6,67,0.00,,---,0.00,VWS V13.01,2013-08-27 17:39:00,
2013-08-27 10:40:00,73.4,61.8,29.50,South,169,3.1,3.1,67,0.00,,---,0.00,VWS V13.01,2013-08-27 17:40:00,
2013-08-27 10:42:00,73.6,62.0,29.50,West,273,2.7,4.0,67,0.00,,---,0.00,VWS V13.01,2013-08-27 17:42:00,
2013-08-27 10:44:00,73.4,60.9,29.50,NNW,331,4.9,6.3,65,0.00,,---,0.00,VWS V13.01,2013-08-27 17:44:00,
2013-08-27 10:45:00,73.4,60.9,29.50,West,266,7.2,7.2,65,0.00,,---,0.00,VWS V13.01,2013-08-27 17:45:00,
2013-08-27 10:47:00,73.0,60.2,29.50,SSW,209,3.1,4.0,64,0.00,,---,0.00,VWS V13.01,2013-08-27 17:47:00,
2013-08-27 10:50:00,72.7,60.2,29.50,SSE,163,0.0,0.0,65,0.00,,---,0.00,VWS V13.01,2013-08-27 17:50:00,
2013-08-27 10:51:00,72.7,60.2,29.50,SW,216,2.7,2.7,65,0.00,,---,0.00,VWS V13.01,2013-08-27 17:51:00,
2013-08-27 10:52:00,72.7,60.2,29.50,WNW,290,4.0,4.0,65,0.00,,---,0.00,VWS V13.01,2013-08-27 17:52:00,
2013-08-27 10:53:00,72.7,60.2,29.50,West,267,3.1,3.1,65,0.00,,---,0.00,VWS V13.01,2013-08-27 17:53:00,
2013-08-27 10:55:00,72.5,60.1,29.50,WSW,254,3.1,6.3,65,0.00,,---,0.00,VWS V13.01,2013-08-27 17:55:00,
2013-08-27 10:56:00,72.5,60.1,29.50,West,272,3.6,3.6,65,0.00,,---,0.00,VWS V13.01,2013-08-27 17:56:00,
2013-08-27 10:57:00,72.5,60.1,29.50,WSW,237,2.7,2.7,65,0.00,,---,0.00,VWS V13.01,2013-08-27 17:57:00,
2013-08-27 10:58:00,72.5,60.1,29.50,South,170,0.0,2.7,65,0.00,,---,0.00,VWS V13.01,2013-08-27 17:58:00,
2013-08-27 11:00:00,72.5,60.1,29.50,SSE,162,0.0,0.0,65,0.00,,---,0.00,VWS V13.01,2013-08-27 18:00:00,
2013-08-27 11:01:00,72.1,59.3,29.50,WNW,284,3.6,5.4,64,0.00,,---,0.00,VWS V13.01,2013-08-27 18:01:00,
2013-08-27 11:02:00,72.1,59.3,29.50,ENE,73,2.7,3.6,64,0.00,,---,0.00,VWS V13.01,2013-08-27 18:02:00,
2013-08-27 11:03:00,72.1,59.3,29.50,East,80,0.0,0.0,64,0.00,,---,0.00,VWS V13.01,2013-08-27 18:03:00,
2013-08-27 11:05:00,72.1,59.7,29.50,East,80,0.0,0.0,65,0.00,,---,0.00,VWS V13.01,2013-08-27 18:05:00,
2013-08-27 11:07:00,72.1,59.7,29.50,East,80,0.0,0.0,65,0.00,,---,0.00,VWS V13.01,2013-08-27 18:07:00,
2013-08-27 11:08:00,72.1,59.7,29.50,SSE,159,2.7,3.1,65,0.00,,---,0.00,VWS V13.01,2013-08-27 18:08:00,
2013-08-27 11:10:00,72.1,59.7,29.50,East,85,0.0,0.0,65,0.00,,---,0.00,VWS V13.01,2013-08-27 18:10:00,
2013-08-27 11:12:00,72.1,59.7,29.50,East,85,0.0,0.0,65,0.00,,---,0.00,VWS V13.01,2013-08-27 18:12:00,
2013-08-27 11:13:00,72.1,59.7,29.50,WSW,249,3.1,3.1,65,0.00,,---,0.00,VWS V13.01,2013-08-27 18:13:00,
2013-08-27 11:15:00,72.1,59.3,29.50,West,275,0.0,0.0,64,0.00,,---,0.00,VWS V13.01,2013-08-27 18:15:00,
2013-08-27 11:17:00,72.1,59.3,29.50,WNW,296,0.0,0.0,64,0.00,,---,0.00,VWS V13.01,2013-08-27 18:17:00,
2013-08-27 11:18:00,72.3,59.5,29.50,WNW,296,0.0,0.0,64,0.00,,---,0.00,VWS V13.01,2013-08-27 18:18:00,
2013-08-27 11:20:00,72.3,59.9,29.50,WNW,296,0.0,0.0,65,0.00,,---,0.00,VWS V13.01,2013-08-27 18:20:00,
2013-08-27 11:21:00,72.3,59.9,29.50,South,179,0.0,0.0,65,0.00,,---,0.00,VWS V13.01,2013-08-27 18:21:00,
2013-08-27 11:22:00,72.5,60.1,29.50,South,187,0.0,0.0,65,0.00,,---,0.00,VWS V13.01,2013-08-27 18:22:00,
2013-08-27 11:23:00,72.7,60.2,29.50,South,187,0.0,0.0,65,0.00,,---,0.00,VWS V13.01,2013-08-27 18:23:00,
2013-08-27 11:25:00,72.7,60.2,29.50,SSW,192,0.0,0.0,65,0.00,,---,0.00,VWS V13.01,2013-08-27 18:25:00,
2013-08-27 11:26:00,72.9,60.4,29.50,SSW,192,0.0,0.0,65,0.00,,---,0.00,VWS V13.01,2013-08-27 18:26:00,
2013-08-27 11:27:00,72.9,60.4,29.50,NNE,27,2.7,2.7,65,0.00,,---,0.00,VWS V13.01,2013-08-27 18:27:00,
2013-08-27 11:28:00,73.0,60.6,29.50,WSW,250,0.0,2.2,65,0.00,,---,0.00,VWS V13.01,2013-08-27 18:28:00,
2013-08-27 11:30:00,73.0,60.2,29.50,WSW,257,0.0,0.0,64,0.00,,---,0.00,VWS V13.01,2013-08-27 18:30:00,
2013-08-27 11:31:00,73.0,60.2,29.50,WSW,257,0.0,0.0,64,0.00,,---,0.00,VWS V13.01,2013-08-27 18:31:00,
2013-08-27 11:32:00,72.9,60.0,29.50,NE,40,2.2,2.2,64,0.00,,---,0.00,VWS V13.01,2013-08-27 18:32:00,
2013-08-27 11:33:00,72.9,60.0,29.50,ESE,102,2.2,2.2,64,0.00,,---,0.00,VWS V13.01,2013-08-27 18:33:00,
2013-08-27 11:35:00,73.0,60.2,29.50,SSE,166,4.0,4.0,64,0.00,,---,0.00,VWS V13.01,2013-08-27 18:35:00,
2013-08-27 11:36:00,73.0,60.2,29.50,SE,127,4.0,4.0,64,0.00,,---,0.00,VWS V13.01,2013-08-27 18:36:00,
2013-08-27 11:37:00,73.2,60.8,29.50,SE,138,0.0,2.7,65,0.00,,---,0.00,VWS V13.01,2013-08-27 18:37:00,
2013-08-27 11:38:00,73.2,60.8,29.50,East,83,3.1,3.1,65,0.00,,---,0.00,VWS V13.01,2013-08-27 18:38:00,
2013-08-27 11:39:00,73.2,60.8,29.50,ESE,119,0.0,3.6,65,0.00,,---,0.00,VWS V13.01,2013-08-27 18:39:00,
2013-08-27 11:41:00,73.6,61.1,29.50,ENE,61,2.7,2.7,65,0.00,,---,0.00,VWS V13.01,2013-08-27 18:41:00,
2013-08-27 11:42:00,73.6,60.7,29.50,East,90,0.0,2.2,64,0.00,,---,0.00,VWS V13.01,2013-08-27 18:42:00,
2013-08-27 11:43:00,73.6,60.7,29.50,East,89,0.0,0.0,64,0.00,,---,0.00,VWS V13.01,2013-08-27 18:43:00,
2013-08-27 11:44:00,73.6,60.7,29.50,ENE,65,2.7,3.1,64,0.00,,---,0.00,VWS V13.01,2013-08-27 18:44:00,
2013-08-27 11:46:00,73.4,60.5,29.50,ENE,65,0.0,0.0,64,0.00,,---,0.00,VWS V13.01,2013-08-27 18:46:00,
2013-08-27 11:48:00,73.6,60.7,29.47,SE,135,0.0,0.0,64,0.00,,---,0.00,VWS V13.01,2013-08-27 18:48:00,
2013-08-27 11:49:00,73.6,60.7,29.47,ENE,62,2.7,3.1,64,0.00,,---,0.00,VWS V13.01,2013-08-27 18:49:00,
2013-08-27 11:51:00,73.8,60.8,29.47,ESE,102,2.7,3.6,64,0.00,,---,0.00,VWS V13.01,2013-08-27 18:51:00,
2013-08-27 11:52:00,73.8,60.8,29.47,ENE,77,3.1,3.1,64,0.00,,---,0.00,VWS V13.01,2013-08-27 18:52:00,
2013-08-27 11:53:00,73.6,60.2,29.47,ESE,110,3.6,4.0,63,0.00,,---,0.00,VWS V13.01,2013-08-27 18:53:00,
2013-08-27 11:54:00,73.8,60.4,29.47,ESE,108,0.0,2.2,63,0.00,,---,0.00,VWS V13.01,2013-08-27 18:54:00,
2013-08-27 11:56:00,73.8,60.4,29.47,NNE,28,2.7,3.1,63,0.00,,---,0.00,VWS V13.01,2013-08-27 18:56:00,
2013-08-27 11:57:00,73.9,60.6,29.47,East,83,2.7,3.1,63,0.00,,---,0.00,VWS V13.01,2013-08-27 18:57:00,
2013-08-27 11:58:00,74.1,60.7,29.47,SE,129,2.2,2.7,63,0.00,,---,0.00,VWS V13.01,2013-08-27 18:58:00,
2013-08-27 11:59:00,74.1,60.7,29.47,SE,130,3.1,3.1,63,0.00,,---,0.00,VWS V13.01,2013-08-27 18:59:00,
2013-08-27 12:01:00,74.5,61.5,29.47,ESE,115,0.0,0.0,64,0.00,,---,0.00,VWS V13.01,2013-08-27 19:01:00,
2013-08-27 12:02:00,74.5,61.1,29.47,East,79,3.6,3.6,63,0.00,,---,0.00,VWS V13.01,2013-08-27 19:02:00,
2013-08-27 12:03:00,74.5,61.1,29.47,East,85,3.1,4.0,63,0.00,,---,0.00,VWS V13.01,2013-08-27 19:03:00,
2013-08-27 12:04:00,74.5,61.1,29.47,East,85,0.0,4.0,63,0.00,,---,0.00,VWS V13.01,2013-08-27 19:04:00,
2013-08-27 12:06:00,74.7,60.8,29.47,NE,46,3.1,3.1,62,0.00,,---,0.00,VWS V13.01,2013-08-27 19:06:00,
2013-08-27 12:07:00,74.5,60.2,29.47,NE,42,2.2,2.7,61,0.00,,---,0.00,VWS V13.01,2013-08-27 19:07:00,
2013-08-27 12:08:00,74.5,60.2,29.47,ENE,72,3.6,4.0,61,0.00,,---,0.00,VWS V13.01,2013-08-27 19:08:00,
2013-08-27 12:09:00,74.7,60.3,29.47,ESE,120,3.1,3.1,61,0.00,,---,0.00,VWS V13.01,2013-08-27 19:09:00,
2013-08-27 12:11:00,75.4,61.0,29.47,ESE,108,2.7,2.7,61,0.00,,---,0.00,VWS V13.01,2013-08-27 19:11:00,
2013-08-27 12:12:00,75.4,60.5,29.47,NW,325,3.1,3.1,60,0.00,,---,0.00,VWS V13.01,2013-08-27 19:12:00,
2013-08-27 12:13:00,75.6,61.2,29.47,SE,129,2.7,3.6,61,0.00,,---,0.00,VWS V13.01,2013-08-27 19:13:00,
2013-08-27 12:14:00,75.7,61.3,29.47,SSE,160,2.7,2.7,61,0.00,,---,0.00,VWS V13.01,2013-08-27 19:14:00,
2013-08-27 12:16:00,76.3,61.9,29.47,SE,136,0.0,3.6,61,0.00,,---,0.00,VWS V13.01,2013-08-27 19:16:00,
2013-08-27 12:17:00,76.5,61.6,29.47,West,272,3.1,3.6,60,0.00,,---,0.00,VWS V13.01,2013-08-27 19:17:00,
2013-08-27 12:19:00,76.6,61.7,29.47,SSW,208,3.1,3.1,60,0.00,,---,0.00,VWS V13.01,2013-08-27 19:19:00,
2013-08-27 12:22:00,77.2,61.8,29.47,West,259,4.9,4.9,59,0.00,,---,0.00,VWS V13.01,2013-08-27 19:22:00,
2013-08-27 12:23:00,77.2,61.3,29.47,SW,225,3.1,4.0,58,0.00,,---,0.00,VWS V13.01,2013-08-27 19:23:00,
2013-08-27 12:24:00,77.0,61.1,29.47,SW,234,4.9,4.9,58,0.00,,---,0.00,VWS V13.01,2013-08-27 19:24:00,
2013-08-27 12:27:00,77.4,60.5,29.47,WSW,249,0.0,0.0,56,0.00,,---,0.00,VWS V13.01,2013-08-27 19:27:00,
2013-08-27 12:28:00,77.5,60.6,29.47,South,184,0.0,0.0,56,0.00,,---,0.00,VWS V13.01,2013-08-27 19:28:00,
2013-08-27 12:29:00,77.5,60.6,29.47,East,99,4.0,4.0,56,0.00,,---,0.00,VWS V13.01,2013-08-27 19:29:00,
2013-08-27 12:32:00,78.3,61.3,29.47,SSW,204,2.7,2.7,56,0.00,,---,0.00,VWS V13.01,2013-08-27 19:32:00,
2013-08-27 12:33:00,78.3,61.3,29.47,SW,224,3.1,3.1,56,0.00,,---,0.00,VWS V13.01,2013-08-27 19:33:00,
2013-08-27 12:34:00,78.1,60.6,29.47,SSW,202,0.0,0.0,55,0.00,,---,0.00,VWS V13.01,2013-08-27 19:34:00,
2013-08-27 12:37:00,77.5,59.6,29.47,ENE,63,3.6,4.0,54,0.00,,---,0.00,VWS V13.01,2013-08-27 19:37:00,
2013-08-27 12:38:00,77.5,59.6,29.47,ENE,74,2.7,2.7,54,0.00,,---,0.00,VWS V13.01,2013-08-27 19:38:00,
2013-08-27 12:39:00,77.5,59.6,29.47,East,80,2.7,3.1,54,0.00,,---,0.00,VWS V13.01,2013-08-27 19:39:00,
2013-08-27 12:40:00,77.5,59.6,29.47,East,100,3.1,3.1,54,0.00,,---,0.00,VWS V13.01,2013-08-27 19:40:00,
2013-08-27 12:42:00,77.7,59.8,29.47,South,178,4.0,5.8,54,0.00,,---,0.00,VWS V13.01,2013-08-27 19:42:00,
2013-08-27 12:43:00,77.7,59.8,29.47,SW,227,4.0,5.8,54,0.00,,---,0.00,VWS V13.01,2013-08-27 19:43:00,
2013-08-27 12:44:00,77.7,59.8,29.47,SW,217,3.1,3.6,54,0.00,,---,0.00,VWS V13.01,2013-08-27 19:44:00,
2013-08-27 12:45:00,77.7,59.8,29.47,SW,236,2.2,3.6,54,0.00,,---,0.00,VWS V13.01,2013-08-27 19:45:00,
2013-08-27 12:47:00,78.3,60.8,29.47,East,97,3.1,3.1,55,0.00,,---,0.00,VWS V13.01,2013-08-27 19:47:00,
2013-08-27 12:48:00,78.3,60.3,29.47,East,97,0.0,3.1,54,0.00,,---,0.00,VWS V13.01,2013-08-27 19:48:00,
2013-08-27 12:49:00,77.9,58.9,29.47,North,9,0.0,3.1,52,0.00,,---,0.00,VWS V13.01,2013-08-27 19:49:00,
2013-08-27 12:50:00,77.7,58.7,29.47,North,9,0.0,3.1,52,0.00,,---,0.00,VWS V13.01,2013-08-27 19:50:00,
2013-08-27 12:52:00,76.8,57.3,29.47,NNE,23,3.6,3.6,51,0.00,,---,0.00,VWS V13.01,2013-08-27 19:52:00,
2013-08-27 12:53:00,76.6,57.2,29.47,NNE,23,2.2,3.1,51,0.00,,---,0.00,VWS V13.01,2013-08-27 19:53:00,
2013-08-27 12:54:00,76.5,57.5,29.47,NNE,23,0.0,0.0,52,0.00,,---,0.00,VWS V13.01,2013-08-27 19:54:00,
2013-08-27 12:55:00,76.5,57.5,29.47,NNE,23,0.0,0.0,52,0.00,,---,0.00,VWS V13.01,2013-08-27 19:55:00,
2013-08-27 12:57:00,77.2,58.7,29.47,SSE,150,2.7,4.9,53,0.00,,---,0.00,VWS V13.01,2013-08-27 19:57:00,
2013-08-27 12:58:00,77.4,58.9,29.47,SE,138,4.0,4.0,53,0.00,,---,0.00,VWS V13.01,2013-08-27 19:58:00,
2013-08-27 12:59:00,77.7,59.2,29.47,East,95,2.7,2.7,53,0.00,,---,0.00,VWS V13.01,2013-08-27 19:59:00,
2013-08-27 13:00:00,77.7,59.2,29.47,SSE,149,3.6,3.6,53,0.00,,---,0.00,VWS V13.01,2013-08-27 20:00:00,
2013-08-27 13:02:00,78.1,59.6,29.44,SSE,162,3.1,4.0,53,0.00,,---,0.00,VWS V13.01,2013-08-27 20:02:00,
2013-08-27 13:03:00,78.1,59.6,29.44,SSW,213,3.1,3.1,53,0.00,,---,0.00,VWS V13.01,2013-08-27 20:03:00,
2013-08-27 13:04:00,78.3,59.2,29.44,SW,228,4.0,4.0,52,0.00,,---,0.00,VWS V13.01,2013-08-27 20:04:00,
2013-08-27 13:05:00,78.3,59.2,29.44,WSW,244,3.6,4.0,52,0.00,,---,0.00,VWS V13.01,2013-08-27 20:05:00,
2013-08-27 13:08:00,78.3,59.7,29.44,SE,146,0.0,0.0,53,0.00,,---,0.00,VWS V13.01,2013-08-27 20:08:00,
2013-08-27 13:09:00,78.4,59.9,29.44,SSE,150,2.7,3.1,53,0.00,,---,0.00,VWS V13.01,2013-08-27 20:09:00,
2013-08-27 13:10:00,78.4,59.4,29.44,ENE,73,3.1,3.1,52,0.00,,---,0.00,VWS V13.01,2013-08-27 20:10:00,
2013-08-27 13:13:00,77.7,58.2,29.44,ENE,68,4.0,4.0,51,0.00,,---,0.00,VWS V13.01,2013-08-27 20:13:00,
2013-08-27 13:14:00,77.5,58.0,29.44,SE,135,3.1,3.1,51,0.00,,---,0.00,VWS V13.01,2013-08-27 20:14:00,
2013-08-27 13:15:00,77.5,58.5,29.44,SE,135,2.7,2.7,52,0.00,,---,0.00,VWS V13.01,2013-08-27 20:15:00,
2013-08-27 13:18:00,77.9,58.9,29.44,SSW,198,0.0,3.1,52,0.00,,---,0.00,VWS V13.01,2013-08-27 20:18:00,
2013-08-27 13:19:00,77.7,58.7,29.44,SSW,199,0.0,0.0,52,0.00,,---,0.00,VWS V13.01,2013-08-27 20:19:00,
2013-08-27 13:20:00,77.7,58.7,29.44,SSW,199,0.0,0.0,52,0.00,,---,0.00,VWS V13.01,2013-08-27 20:20:00,
2013-08-27 13:23:00,77.9,58.9,29.44,WSW,239,0.0,0.0,52,0.00,,---,0.00,VWS V13.01,2013-08-27 20:23:00,
2013-08-27 13:24:00,77.9,58.9,29.44,South,184,0.0,0.0,52,0.00,,---,0.00,VWS V13.01,2013-08-27 20:24:00,
2013-08-27 13:25:00,77.9,58.9,29.44,South,184,0.0,0.0,52,0.00,,---,0.00,VWS V13.01,2013-08-27 20:25:00,
2013-08-27 13:28:00,78.4,59.4,29.44,SSW,213,4.0,4.9,52,0.00,,---,0.00,VWS V13.01,2013-08-27 20:28:00,
2013-08-27 13:30:00,78.3,59.2,29.44,SW,220,3.6,4.0,52,0.00,,---,0.00,VWS V13.01,2013-08-27 20:30:00,
2013-08-27 13:31:00,78.1,59.0,29.44,South,174,2.7,4.0,52,0.00,,---,0.00,VWS V13.01,2013-08-27 20:31:00,
2013-08-27 13:34:00,78.3,59.2,29.44,SW,224,0.0,0.0,52,0.00,,---,0.00,VWS V13.01,2013-08-27 20:34:00,
2013-08-27 13:35:00,78.4,59.4,29.44,SE,142,0.0,0.0,52,0.00,,---,0.00,VWS V13.01,2013-08-27 20:35:00,
2013-08-27 13:36:00,78.4,59.4,29.44,SE,142,2.7,2.7,52,0.00,,---,0.00,VWS V13.01,2013-08-27 20:36:00,
2013-08-27 13:39:00,78.4,58.8,29.44,ENE,78,0.0,0.0,51,0.00,,---,0.00,VWS V13.01,2013-08-27 20:39:00,
2013-08-27 13:40:00,78.6,59.0,29.44,SSE,161,2.2,2.2,51,0.00,,---,0.00,VWS V13.01,2013-08-27 20:40:00,
2013-08-27 13:41:00,78.8,59.7,29.44,SSE,161,0.0,0.0,52,0.00,,---,0.00,VWS V13.01,2013-08-27 20:41:00,
2013-08-27 13:44:00,79.3,59.7,29.44,SSE,161,0.0,0.0,51,0.00,,---,0.00,VWS V13.01,2013-08-27 20:44:00,
2013-08-27 13:45:00,79.3,59.1,29.44,NE,39,2.2,2.7,50,0.00,,---,0.00,VWS V13.01,2013-08-27 20:45:00,
2013-08-27 13:46:00,79.3,59.7,29.44,East,98,3.1,3.1,51,0.00,,---,0.00,VWS V13.01,2013-08-27 20:46:00,
2013-08-27 13:49:00,80.2,60.5,29.44,SE,130,0.0,0.0,51,0.00,,---,0.00,VWS V13.01,2013-08-27 20:49:00,
2013-08-27 13:50:00,80.2,60.5,29.44,SE,130,0.0,0.0,51,0.00,,---,0.00,VWS V13.01,2013-08-27 20:50:00,
2013-08-27 13:51:00,80.1,59.8,29.44,SSE,165,2.2,3.1,50,0.00,,---,0.00,VWS V13.01,2013-08-27 20:51:00,
2013-08-27 13:54:00,80.2,59.9,29.44,South,170,3.1,3.1,50,0.00,,---,0.00,VWS V13.01,2013-08-27 20:54:00,
2013-08-27 13:55:00,80.2,59.9,29.44,SSW,213,2.7,3.1,50,0.00,,---,0.00,VWS V13.01,2013-08-27 20:55:00,
2013-08-27 13:56:00,80.1,59.8,29.44,WSW,247,2.2,3.6,50,0.00,,---,0.00,VWS V13.01,2013-08-27 20:56:00,
2013-08-27 13:59:00,79.5,58.7,29.44,SW,233,2.7,3.6,49,0.00,,---,0.00,VWS V13.01,2013-08-27 20:59:00,
2013-08-27 14:00:00,79.5,58.7,29.44,SW,220,4.0,4.0,49,0.00,,---,0.00,VWS V13.01,2013-08-27 21:00:00,
2013-08-27 14:01:00,79.5,58.7,29.44,SW,220,3.6,4.0,49,0.00,,---,0.00,VWS V13.01,2013-08-27 21:01:00,
2013-08-27 14:04:00,80.4,59.5,29.44,West,266,4.0,4.0,49,0.00,,---,0.00,VWS V13.01,2013-08-27 21:04:00,
2013-08-27 14:05:00,80.4,59.5,29.44,WSW,246,4.0,5.4,49,0.00,,---,0.00,VWS V13.01,2013-08-27 21:05:00,
2013-08-27 14:06:00,80.6,59.7,29.44,WSW,249,2.7,5.4,49,0.00,,---,0.00,VWS V13.01,2013-08-27 21:06:00,
2013-08-27 14:10:00,81.0,59.4,29.44,West,280,3.6,3.6,48,0.00,,---,0.00,VWS V13.01,2013-08-27 21:10:00,
2013-08-27 14:11:00,81.1,59.6,29.44,WSW,251,4.0,4.0,48,0.00,,---,0.00,VWS V13.01,2013-08-27 21:11:00,
2013-08-27 14:15:00,81.3,59.8,29.44,SE,140,2.7,2.7,48,0.00,,---,0.00,VWS V13.01,2013-08-27 21:15:00,
2013-08-27 14:16:00,81.5,59.9,29.44,SSE,159,2.2,2.7,48,0.00,,---,0.00,VWS V13.01,2013-08-27 21:16:00,
2013-08-27 14:17:00,81.9,60.3,29.44,ENE,67,0.0,3.1,48,0.00,,---,0.00,VWS V13.01,2013-08-27 21:17:00,
2013-08-27 14:20:00,82.2,60.0,29.44,ESE,107,2.7,2.7,47,0.00,,---,0.00,VWS V13.01,2013-08-27 21:20:00,
2013-08-27 14:21:00,82.2,60.0,29.44,ESE,107,0.0,2.7,47,0.00,,---,0.00,VWS V13.01,2013-08-27 21:21:00,
2013-08-27 14:22:00,82.0,59.2,29.44,ENE,61,3.6,3.6,46,0.00,,---,0.00,VWS V13.01,2013-08-27 21:22:00,
2013-08-27 14:26:00,81.3,58.6,29.44,NE,43,3.6,3.6,46,0.00,,---,0.00,VWS V13.01,2013-08-27 21:26:00,
2013-08-27 14:27:00,81.5,58.8,29.44,SE,144,0.0,2.2,46,0.00,,---,0.00,VWS V13.01,2013-08-27 21:27:00,
2013-08-27 14:31:00,81.9,58.5,29.44,NE,34,3.6,3.6,45,0.00,,---,0.00,VWS V13.01,2013-08-27 21:31:00,
2013-08-27 14:32:00,82.0,58.6,29.44,NNE,31,0.0,0.0,45,0.00,,---,0.00,VWS V13.01,2013-08-27 21:32:00,
2013-08-27 14:36:00,82.4,59.0,29.44,SSW,209,0.0,0.0,45,0.00,,---,0.00,VWS V13.01,2013-08-27 21:36:00,
2013-08-27 14:38:00,82.4,58.3,29.44,NNE,30,6.3,6.3,44,0.00,,---,0.00,VWS V13.01,2013-08-27 21:38:00,
2013-08-27 14:41:00,81.0,56.4,29.44,NNE,26,0.0,0.0,43,0.00,,---,0.00,VWS V13.01,2013-08-27 21:41:00,
2013-08-27 14:42:00,80.8,56.2,29.44,NNE,26,0.0,0.0,43,0.00,,---,0.00,VWS V13.01,2013-08-27 21:42:00,
2013-08-27 14:43:00,81.0,57.0,29.44,NNE,30,0.0,0.0,44,0.00,,---,0.00,VWS V13.01,2013-08-27 21:43:00,
2013-08-27 14:46:00,82.0,58.0,29.44,WSW,238,4.9,5.8,44,0.00,,---,0.00,VWS V13.01,2013-08-27 21:46:00,
2013-08-27 14:47:00,82.2,58.2,29.41,SW,222,4.0,5.8,44,0.00,,---,0.00,VWS V13.01,2013-08-27 21:47:00,
2013-08-27 14:48:00,82.6,58.5,29.41,West,259,3.6,3.6,44,0.00,,---,0.00,VWS V13.01,2013-08-27 21:48:00,
2013-08-27 14:51:00,82.9,58.8,29.41,NNW,337,4.0,4.0,44,0.00,,---,0.00,VWS V13.01,2013-08-27 21:51:00,
2013-08-27 14:52:00,82.9,58.8,29.41,WNW,290,2.7,4.0,44,0.00,,---,0.00,VWS V13.01,2013-08-27 21:52:00,
2013-08-27 14:53:00,83.1,59.6,29.41,WSW,241,3.6,3.6,45,0.00,,---,0.00,VWS V13.01,2013-08-27 21:53:00,
2013-08-27 14:56:00,82.9,59.4,29.41,ESE,108,2.7,2.7,45,0.00,,---,0.00,VWS V13.01,2013-08-27 21:56:00,
2013-08-27 14:57:00,82.9,59.4,29.41,ESE,103,2.2,3.6,45,0.00,,---,0.00,VWS V13.01,2013-08-27 21:57:00,
2013-08-27 14:58:00,83.1,59.0,29.41,WNW,292,2.7,3.1,44,0.00,,---,0.00,VWS V13.01,2013-08-27 21:58:00,
2013-08-27 15:01:00,83.1,59.6,29.41,NW,307,6.3,6.3,45,0.00,,---,0.00,VWS V13.01,2013-08-27 22:01:00,
2013-08-27 15:02:00,83.1,59.0,29.41,SSW,199,4.9,4.9,44,0.00,,---,0.00,VWS V13.01,2013-08-27 22:02:00,
2013-08-27 15:03:00,83.3,59.8,29.41,SSW,202,3.1,4.9,45,0.00,,---,0.00,VWS V13.01,2013-08-27 22:03:00,
2013-08-27 15:06:00,83.8,60.2,29.41,SSW,194,5.8,5.8,45,0.00,,---,0.00,VWS V13.01,2013-08-27 22:06:00,
2013-08-27 15:07:00,84.0,60.4,29.41,WSW,245,4.9,5.8,45,0.00,,---,0.00,VWS V13.01,2013-08-27 22:07:00,
2013-08-27 15:08:00,84.0,60.4,29.41,South,182,3.1,5.8,45,0.00,,---,0.00,VWS V13.01,2013-08-27 22:08:00,
2013-08-27 15:11:00,84.2,60.0,29.41,SE,126,0.0,2.2,44,0.00,,---,0.00,VWS V13.01,2013-08-27 22:11:00,
2013-08-27 15:12:00,84.2,60.0,29.41,SE,126,0.0,0.0,44,0.00,,---,0.00,VWS V13.01,2013-08-27 22:12:00,
2013-08-27 15:13:00,84.0,59.8,29.41,ENE,72,0.0,2.2,44,0.00,,---,0.00,VWS V13.01,2013-08-27 22:13:00,
2013-08-27 15:17:00,84.0,59.8,29.41,WSW,246,6.3,7.6,44,0.00,,---,0.00,VWS V13.01,2013-08-27 22:17:00,
2013-08-27 15:18:00,84.2,59.3,29.41,West,275,3.6,6.3,43,0.00,,---,0.00,VWS V13.01,2013-08-27 22:18:00,
2013-08-27 15:22:00,84.0,59.8,29.41,WSW,248,4.9,5.4,44,0.00,,---,0.00,VWS V13.01,2013-08-27 22:22:00,
2013-08-27 15:23:00,84.0,59.1,29.41,WSW,239,2.7,4.9,43,0.00,,---,0.00,VWS V13.01,2013-08-27 22:23:00,
2013-08-27 15:27:00,84.2,59.3,29.41,WSW,238,4.0,4.0,43,0.00,,---,0.00,VWS V13.01,2013-08-27 22:27:00,
2013-08-27 15:28:00,84.0,59.8,29.41,West,260,5.4,5.4,44,0.00,,---,0.00,VWS V13.01,2013-08-27 22:28:00,
2013-08-27 15:32:00,83.8,59.0,29.38,NNE,32,0.0,2.7,43,0.00,,---,0.00,VWS V13.01,2013-08-27 22:32:00,
2013-08-27 15:33:00,83.7,58.8,29.38,WSW,238,4.0,4.0,43,0.00,,---,0.00,VWS V13.01,2013-08-27 22:33:00,
2013-08-27 15:38:00,82.9,58.2,29.38,South,182,0.0,3.1,43,0.00,,---,0.00,VWS V13.01,2013-08-27 22:38:00,
2013-08-27 15:43:00,82.6,57.8,29.38,NW,316,2.7,2.7,43,0.00,,---,0.00,VWS V13.01,2013-08-27 22:43:00,
2013-08-27 15:48:00,82.2,57.5,29.41,West,260,6.7,6.7,43,0.00,,---,0.00,VWS V13.01,2013-08-27 22:48:00,
2013-08-27 15:49:00,82.2,57.5,29.41,WSW,251,5.4,5.4,43,0.00,,---,0.00,VWS V13.01,2013-08-27 22:49:00,
2013-08-27 15:53:00,82.0,57.4,29.41,SW,229,6.3,6.3,43,0.00,,---,0.00,VWS V13.01,2013-08-27 22:53:00,
2013-08-27 15:54:00,81.9,57.2,29.41,SSW,200,3.6,3.6,43,0.00,,---,0.00,VWS V13.01,2013-08-27 22:54:00,
2013-08-27 15:58:00,81.9,57.8,29.41,West,265,0.0,0.0,44,0.00,,---,0.00,VWS V13.01,2013-08-27 22:58:00,
2013-08-27 16:00:00,82.2,58.2,29.41,WSW,246,0.0,3.1,44,0.00,,---,0.00,VWS V13.01,2013-08-27 23:00:00,
2013-08-27 16:03:00,82.0,58.0,29.41,SW,218,4.0,5.4,44,0.00,,---,0.00,VWS V13.01,2013-08-27 23:03:00,
2013-08-27 16:04:00,82.0,58.0,29.41,SW,220,0.0,4.0,44,0.00,,---,0.00,VWS V13.01,2013-08-27 23:04:00,
2013-08-27 16:05:00,82.0,58.0,29.41,West,264,2.7,2.7,44,0.00,,---,0.00,VWS V13.01,2013-08-27 23:05:00,
2013-08-27 16:08:00,82.0,58.6,29.41,West,271,3.6,5.4,45,0.00,,---,0.00,VWS V13.01,2013-08-27 23:08:00,
2013-08-27 16:09:00,82.0,58.0,29.41,SSW,203,4.0,5.4,44,0.00,,---,0.00,VWS V13.01,2013-08-27 23:09:00,
2013-08-27 16:10:00,81.9,58.5,29.41,WNW,297,5.4,5.4,45,0.00,,---,0.00,VWS V13.01,2013-08-27 23:10:00,
2013-08-27 16:13:00,81.5,58.1,29.41,WSW,241,3.6,3.6,45,0.00,,---,0.00,VWS V13.01,2013-08-27 23:13:00,
2013-08-27 16:14:00,81.5,58.1,29.41,SW,234,7.6,7.6,45,0.00,,---,0.00,VWS V13.01,2013-08-27 23:14:00,
2013-08-27 16:15:00,81.3,58.0,29.41,West,261,7.6,7.6,45,0.00,,---,0.00,VWS V13.01,2013-08-27 23:15:00,
2013-08-27 16:18:00,81.0,57.6,29.41,WSW,240,2.7,2.7,45,0.00,,---,0.00,VWS V13.01,2013-08-27 23:18:00,
2013-08-27 16:19:00,81.0,57.6,29.41,WSW,244,4.9,4.9,45,0.00,,---,0.00,VWS V13.01,2013-08-27 23:19:00,
2013-08-27 16:20:00,81.0,57.6,29.41,SW,234,3.1,4.0,45,0.00,,---,0.00,VWS V13.01,2013-08-27 23:20:00,
2013-08-27 16:23:00,80.8,58.1,29.41,WSW,256,3.1,4.0,46,0.00,,---,0.00,VWS V13.01,2013-08-27 23:23:00,
2013-08-27 16:24:00,80.6,57.9,29.41,WNW,282,5.4,5.4,46,0.00,,---,0.00,VWS V13.01,2013-08-27 23:24:00,
2013-08-27 16:25:00,80.8,58.1,29.41,SW,229,5.8,8.3,46,0.00,,---,0.00,VWS V13.01,2013-08-27 23:25:00,
2013-08-27 16:28:00,80.2,57.6,29.41,SW,231,3.6,4.0,46,0.00,,---,0.00,VWS V13.01,2013-08-27 23:28:00,
2013-08-27 16:29:00,80.1,57.4,29.41,South,190,5.8,5.8,46,0.00,,---,0.00,VWS V13.01,2013-08-27 23:29:00,
2013-08-27 16:30:00,80.1,57.4,29.41,West,274,4.0,4.9,46,0.00,,---,0.00,VWS V13.01,2013-08-27 23:30:00,
2013-08-27 16:33:00,79.9,57.9,29.41,WSW,238,4.0,8.3,47,0.00,,---,0.00,VWS V13.01,2013-08-27 23:33:00,
2013-08-27 16:34:00,79.9,57.9,29.41,WSW,253,4.0,8.1,47,0.00,,---,0.00,VWS V13.01,2013-08-27 23:34:00,
2013-08-27 16:36:00,79.9,57.9,29.41,SSW,212,3.6,3.6,47,0.00,,---,0.00,VWS V13.01,2013-08-27 23:36:00,
2013-08-27 16:38:00,79.7,57.7,29.41,West,264,4.0,6.3,47,0.00,,---,0.00,VWS V13.01,2013-08-27 23:38:00,
2013-08-27 16:39:00,79.5,57.5,29.41,South,186,4.0,5.4,47,0.00,,---,0.00,VWS V13.01,2013-08-27 23:39:00,
2013-08-27 16:41:00,79.3,57.4,29.41,West,271,4.0,5.4,47,0.00,,---,0.00,VWS V13.01,2013-08-27 23:41:00,
2013-08-27 16:43:00,79.2,57.2,29.41,SW,231,3.6,8.1,47,0.00,,---,0.00,VWS V13.01,2013-08-27 23:43:00,
2013-08-27 16:44:00,79.0,57.0,29.41,WSW,238,6.3,6.3,47,0.00,,---,0.00,VWS V13.01,2013-08-27 23:44:00,
2013-08-27 16:46:00,79.0,57.0,29.41,West,273,4.0,4.0,47,0.00,,---,0.00,VWS V13.01,2013-08-27 23:46:00,
2013-08-27 16:49:00,78.8,56.9,29.41,SW,232,3.6,6.3,47,0.00,,---,0.00,VWS V13.01,2013-08-27 23:49:00,
2013-08-27 16:51:00,78.8,57.5,29.41,West,270,0.0,4.0,48,0.00,,---,0.00,VWS V13.01,2013-08-27 23:51:00,
2013-08-27 16:54:00,78.4,57.1,29.41,WNW,283,2.7,2.7,48,0.00,,---,0.00,VWS V13.01,2013-08-27 23:54:00,
2013-08-27 16:56:00,78.4,57.1,29.41,West,266,0.0,0.0,48,0.00,,---,0.00,VWS V13.01,2013-08-27 23:56:00,
2013-08-27 16:59:00,78.3,57.0,29.41,SE,132,2.2,3.1,48,0.00,,---,0.00,VWS V13.01,2013-08-27 23:59:00,
2013-08-27 17:00:00,78.3,57.0,29.41,SE,132,0.0,3.1,48,0.00,,---,0.00,VWS V13.01,2013-08-28 00:00:00,
2013-08-27 17:01:00,78.1,56.8,29.41,SE,132,0.0,0.0,48,0.00,,---,0.00,VWS V13.01,2013-08-28 00:01:00,
2013-08-27 17:04:00,78.3,57.5,29.41,WSW,253,0.0,2.7,49,0.00,,---,0.00,VWS V13.01,2013-08-28 00:04:00,
2013-08-27 17:05:00,78.3,57.5,29.41,WSW,253,0.0,2.7,49,0.00,,---,0.00,VWS V13.01,2013-08-28 00:05:00,
2013-08-27 17:06:00,78.4,57.7,29.41,West,260,6.3,6.3,49,0.00,,---,0.00,VWS V13.01,2013-08-28 00:06:00,
2013-08-27 17:09:00,78.1,57.4,29.41,West,270,0.0,2.2,49,0.00,,---,0.00,VWS V13.01,2013-08-28 00:09:00,
2013-08-27 17:10:00,78.1,57.4,29.41,NNE,18,2.7,2.7,49,0.00,,---,0.00,VWS V13.01,2013-08-28 00:10:00,
2013-08-27 17:11:00,78.1,57.4,29.41,WSW,252,0.0,0.0,49,0.00,,---,0.00,VWS V13.01,2013-08-28 00:11:00,
2013-08-27 17:14:00,78.1,57.4,29.41,West,263,0.0,0.0,49,0.00,,---,0.00,VWS V13.01,2013-08-28 00:14:00,
2013-08-27 17:15:00,78.1,57.4,29.41,West,261,0.0,0.0,49,0.00,,---,0.00,VWS V13.01,2013-08-28 00:15:00,
2013-08-27 17:16:00,77.9,57.2,29.41,WSW,253,0.0,2.2,49,0.00,,---,0.00,VWS V13.01,2013-08-28 00:16:00,
2013-08-27 17:19:00,77.7,57.1,29.41,West,279,3.6,3.6,49,0.00,,---,0.00,VWS V13.01,2013-08-28 00:19:00,
2013-08-27 17:20:00,77.7,57.1,29.41,West,259,2.7,3.6,49,0.00,,---,0.00,VWS V13.01,2013-08-28 00:20:00,
2013-08-27 17:21:00,77.5,56.9,29.41,SE,140,0.0,2.2,49,0.00,,---,0.00,VWS V13.01,2013-08-28 00:21:00,
2013-08-27 17:24:00,77.7,57.6,29.41,WSW,239,0.0,0.0,50,0.00,,---,0.00,VWS V13.01,2013-08-28 00:24:00,
2013-08-27 17:25:00,77.9,57.8,29.41,WSW,239,0.0,0.0,50,0.00,,---,0.00,VWS V13.01,2013-08-28 00:25:00,
2013-08-27 17:26:00,77.9,57.8,29.41,WSW,239,0.0,0.0,50,0.00,,---,0.00,VWS V13.01,2013-08-28 00:26:00,
2013-08-27 17:29:00,77.9,57.8,29.41,SE,145,0.0,0.0,50,0.00,,---,0.00,VWS V13.01,2013-08-28 00:29:00,
2013-08-27 17:30:00,77.9,57.8,29.41,WNW,293,3.1,3.1,50,0.00,,---,0.00,VWS V13.01,2013-08-28 00:30:00,
2013-08-27 17:31:00,77.9,57.8,29.41,WNW,293,0.0,0.0,50,0.00,,---,0.00,VWS V13.01,2013-08-28 00:31:00,
2013-08-27 17:34:00,77.7,57.6,29.41,ESE,106,0.0,0.0,50,0.00,,---,0.00,VWS V13.01,2013-08-28 00:34:00,
2013-08-27 17:35:00,77.7,57.6,29.41,WSW,249,2.7,4.0,50,0.00,,---,0.00,VWS V13.01,2013-08-28 00:35:00,
2013-08-27 17:37:00,77.7,57.6,29.41,WSW,254,2.7,4.0,50,0.00,,---,0.00,VWS V13.01,2013-08-28 00:37:00,
2013-08-27 17:39:00,77.5,57.5,29.41,SW,235,3.1,4.0,50,0.00,,---,0.00,VWS V13.01,2013-08-28 00:39:00,
2013-08-27 17:40:00,77.5,57.5,29.41,West,264,2.7,2.7,50,0.00,,---,0.00,VWS V13.01,2013-08-28 00:40:00,
2013-08-27 17:42:00,77.4,57.3,29.41,WSW,252,3.6,3.6,50,0.00,,---,0.00,VWS V13.01,2013-08-28 00:42:00,
2013-08-27 17:45:00,77.4,57.3,29.41,West,275,0.0,0.0,50,0.00,,---,0.00,VWS V13.01,2013-08-28 00:45:00,
2013-08-27 17:47:00,77.4,57.8,29.41,West,270,0.0,0.0,51,0.00,,---,0.00,VWS V13.01,2013-08-28 00:47:00,
2013-08-27 17:50:00,77.4,57.8,29.38,West,277,0.0,0.0,51,0.00,,---,0.00,VWS V13.01,2013-08-28 00:50:00,
2013-08-27 17:51:00,77.4,57.8,29.38,SE,144,0.0,0.0,51,0.00,,---,0.00,VWS V13.01,2013-08-28 00:51:00,
2013-08-27 17:52:00,77.4,57.3,29.38,WSW,241,2.2,2.7,50,0.00,,---,0.00,VWS V13.01,2013-08-28 00:52:00,
2013-08-27 17:55:00,77.4,57.8,29.38,WSW,241,0.0,0.0,51,0.00,,---,0.00,VWS V13.01,2013-08-28 00:55:00,
2013-08-27 17:56:00,77.2,57.7,29.38,West,268,2.2,2.2,51,0.00,,---,0.00,VWS V13.01,2013-08-28 00:56:00,
2013-08-27 17:57:00,77.4,57.8,29.38,WSW,256,2.7,2.7,51,0.00,,---,0.00,VWS V13.01,2013-08-28 00:57:00,
2013-08-27 18:00:00,77.2,57.7,29.38,West,274,3.1,3.1,51,0.00,,---,0.00,VWS V13.01,2013-08-28 01:00:00,
2013-08-27 18:01:00,77.4,57.8,29.38,West,278,3.1,3.6,51,0.00,,---,0.00,VWS V13.01,2013-08-28 01:01:00,
2013-08-27 18:02:00,77.2,57.7,29.38,West,278,0.0,0.0,51,0.00,,---,0.00,VWS V13.01,2013-08-28 01:02:00,
2013-08-27 18:05:00,77.0,57.5,29.38,WSW,251,2.2,3.6,51,0.00,,---,0.00,VWS V13.01,2013-08-28 01:05:00,
2013-08-27 18:06:00,77.0,57.0,29.38,WSW,251,0.0,3.6,50,0.00,,---,0.00,VWS V13.01,2013-08-28 01:06:00,
2013-08-27 18:07:00,76.8,57.3,29.38,West,261,2.7,2.7,51,0.00,,---,0.00,VWS V13.01,2013-08-28 01:07:00,
2013-08-27 18:10:00,76.6,57.2,29.38,West,271,0.0,0.0,51,0.00,,---,0.00,VWS V13.01,2013-08-28 01:10:00,
2013-08-27 18:11:00,76.6,57.2,29.38,West,271,0.0,0.0,51,0.00,,---,0.00,VWS V13.01,2013-08-28 01:11:00,
2013-08-27 18:12:00,76.6,57.7,29.38,West,271,0.0,0.0,52,0.00,,---,0.00,VWS V13.01,2013-08-28 01:12:00,
2013-08-27 18:15:00,76.5,57.0,29.38,West,263,0.0,0.0,51,0.00,,---,0.00,VWS V13.01,2013-08-28 01:15:00,
2013-08-27 18:16:00,76.5,57.0,29.38,West,262,0.0,0.0,51,0.00,,---,0.00,VWS V13.01,2013-08-28 01:16:00,
2013-08-27 18:17:00,76.6,57.7,29.38,West,263,0.0,0.0,52,0.00,,---,0.00,VWS V13.01,2013-08-28 01:17:00,
2013-08-27 18:21:00,76.6,57.7,29.38,West,263,0.0,0.0,52,0.00,,---,0.00,VWS V13.01,2013-08-28 01:21:00,
2013-08-27 18:22:00,76.6,57.7,29.38,West,263,0.0,0.0,52,0.00,,---,0.00,VWS V13.01,2013-08-28 01:22:00,
2013-08-27 18:26:00,76.6,57.7,29.38,WSW,255,2.2,2.2,52,0.00,,---,0.00,VWS V13.01,2013-08-28 01:26:00,
2013-08-27 18:27:00,76.6,57.7,29.38,WSW,243,2.7,2.7,52,0.00,,---,0.00,VWS V13.01,2013-08-28 01:27:00,
2013-08-27 18:31:00,76.5,57.5,29.38,WSW,243,0.0,0.0,52,0.00,,---,0.00,VWS V13.01,2013-08-28 01:31:00,
2013-08-27 18:32:00,76.5,57.5,29.38,WSW,243,0.0,0.0,52,0.00,,---,0.00,VWS V13.01,2013-08-28 01:32:00,
2013-08-27 18:36:00,76.3,57.4,29.38,WSW,243,0.0,0.0,52,0.00,,---,0.00,VWS V13.01,2013-08-28 01:36:00,
2013-08-27 18:37:00,76.3,57.4,29.38,WSW,243,0.0,0.0,52,0.00,,---,0.00,VWS V13.01,2013-08-28 01:37:00,
2013-08-27 18:41:00,76.1,57.2,29.38,WSW,244,0.0,0.0,52,0.00,,---,0.00,VWS V13.01,2013-08-28 01:41:00,
2013-08-27 18:42:00,76.1,57.2,29.38,WSW,243,0.0,0.0,52,0.00,,---,0.00,VWS V13.01,2013-08-28 01:42:00,
2013-08-27 18:46:00,75.9,57.0,29.38,WSW,243,0.0,0.0,52,0.00,,---,0.00,VWS V13.01,2013-08-28 01:46:00,
2013-08-27 18:47:00,75.9,57.0,29.38,WSW,243,0.0,0.0,52,0.00,,---,0.00,VWS V13.01,2013-08-28 01:47:00,
2013-08-27 18:51:00,75.6,56.7,29.38,WSW,243,0.0,0.0,52,0.00,,---,0.00,VWS V13.01,2013-08-28 01:51:00,
2013-08-27 18:52:00,75.6,56.7,29.38,WSW,243,0.0,0.0,52,0.00,,---,0.00,VWS V13.01,2013-08-28 01:52:00,
2013-08-27 18:53:00,75.6,56.7,29.38,WSW,243,0.0,0.0,52,0.00,,---,0.00,VWS V13.01,2013-08-28 01:53:00,
2013-08-27 18:56:00,75.4,56.5,29.38,WSW,243,0.0,0.0,52,0.00,,---,0.00,VWS V13.01,2013-08-28 01:56:00,
2013-08-27 18:57:00,75.4,56.5,29.38,WSW,243,0.0,0.0,52,0.00,,---,0.00,VWS V13.01,2013-08-28 01:57:00,
2013-08-27 18:58:00,75.4,56.5,29.38,WSW,243,0.0,0.0,52,0.00,,---,0.00,VWS V13.01,2013-08-28 01:58:00,
2013-08-27 19:02:00,75.4,57.1,29.38,WSW,243,0.0,0.0,53,0.00,,---,0.00,VWS V13.01,2013-08-28 02:02:00,
2013-08-27 19:03:00,75.6,57.8,29.38,WSW,243,0.0,0.0,54,0.00,,---,0.00,VWS V13.01,2013-08-28 02:03:00,
2013-08-27 19:07:00,75.4,57.6,29.38,WSW,244,0.0,0.0,54,0.00,,---,0.00,VWS V13.01,2013-08-28 02:07:00,
2013-08-27 19:08:00,75.4,57.6,29.38,WSW,243,0.0,0.0,54,0.00,,---,0.00,VWS V13.01,2013-08-28 02:08:00,
2013-08-27 19:12:00,75.2,57.4,29.38,WSW,243,0.0,0.0,54,0.00,,---,0.00,VWS V13.01,2013-08-28 02:12:00,
2013-08-27 19:13:00,75.2,57.4,29.38,WSW,243,0.0,0.0,54,0.00,,---,0.00,VWS V13.01,2013-08-28 02:13:00,
2013-08-27 19:17:00,75.0,57.8,29.38,WSW,243,0.0,0.0,55,0.00,,---,0.00,VWS V13.01,2013-08-28 02:17:00,
2013-08-27 19:18:00,75.0,58.3,29.38,WSW,243,0.0,0.0,56,0.00,,---,0.00,VWS V13.01,2013-08-28 02:18:00,
2013-08-27 19:22:00,75.2,58.4,29.38,WSW,243,0.0,0.0,56,0.00,,---,0.00,VWS V13.01,2013-08-28 02:22:00,
2013-08-27 19:23:00,75.2,58.4,29.38,WSW,243,0.0,0.0,56,0.00,,---,0.00,VWS V13.01,2013-08-28 02:23:00,
2013-08-27 19:27:00,74.8,58.1,29.38,WSW,243,0.0,0.0,56,0.00,,---,0.00,VWS V13.01,2013-08-28 02:27:00,
2013-08-27 19:28:00,74.8,58.1,29.38,WSW,243,0.0,0.0,56,0.00,,---,0.00,VWS V13.01,2013-08-28 02:28:00,
2013-08-27 19:29:00,74.7,57.9,29.38,WSW,243,0.0,0.0,56,0.00,,---,0.00,VWS V13.01,2013-08-28 02:29:00,
2013-08-27 19:32:00,74.5,57.8,29.38,WSW,243,0.0,0.0,56,0.00,,---,0.00,VWS V13.01,2013-08-28 02:32:00,
2013-08-27 19:33:00,74.5,57.8,29.38,WSW,243,0.0,0.0,56,0.00,,---,0.00,VWS V13.01,2013-08-28 02:33:00,
2013-08-27 19:34:00,74.5,58.3,29.38,WSW,243,0.0,0.0,57,0.00,,---,0.00,VWS V13.01,2013-08-28 02:34:00,
2013-08-27 19:37:00,74.7,58.4,29.38,WSW,243,0.0,0.0,57,0.00,,---,0.00,VWS V13.01,2013-08-28 02:37:00,
2013-08-27 19:38:00,74.7,58.4,29.38,WSW,243,0.0,0.0,57,0.00,,---,0.00,VWS V13.01,2013-08-28 02:38:00,
2013-08-27 19:39:00,74.7,58.4,29.38,WSW,243,0.0,0.0,57,0.00,,---,0.00,VWS V13.01,2013-08-28 02:39:00,
2013-08-27 19:43:00,74.5,58.8,29.38,WSW,243,0.0,0.0,58,0.00,,---,0.00,VWS V13.01,2013-08-28 02:43:00,
2013-08-27 19:44:00,74.5,58.8,29.38,WSW,243,0.0,0.0,58,0.00,,---,0.00,VWS V13.01,2013-08-28 02:44:00,
2013-08-27 19:48:00,74.3,58.6,29.38,WSW,243,0.0,0.0,58,0.00,,---,0.00,VWS V13.01,2013-08-28 02:48:00,
2013-08-27 19:49:00,74.3,59.1,29.38,WSW,243,0.0,0.0,59,0.00,,---,0.00,VWS V13.01,2013-08-28 02:49:00,
2013-08-27 19:53:00,74.3,59.1,29.38,WSW,243,0.0,0.0,59,0.00,,---,0.00,VWS V13.01,2013-08-28 02:53:00,
2013-08-27 19:54:00,74.3,59.1,29.38,WSW,243,0.0,0.0,59,0.00,,---,0.00,VWS V13.01,2013-08-28 02:54:00,
2013-08-27 19:58:00,74.3,59.1,29.38,WSW,243,0.0,0.0,59,0.00,,---,0.00,VWS V13.01,2013-08-28 02:58:00,
2013-08-27 19:59:00,74.1,58.9,29.38,WSW,243,0.0,0.0,59,0.00,,---,0.00,VWS V13.01,2013-08-28 02:59:00,
2013-08-27 20:03:00,73.9,58.7,29.38,WSW,243,0.0,0.0,59,0.00,,---,0.00,VWS V13.01,2013-08-28 03:03:00,
2013-08-27 20:04:00,73.9,58.7,29.38,WSW,243,0.0,0.0,59,0.00,,---,0.00,VWS V13.01,2013-08-28 03:04:00,
2013-08-27 20:08:00,73.2,58.5,29.38,WSW,243,0.0,0.0,60,0.00,,---,0.00,VWS V13.01,2013-08-28 03:08:00,
2013-08-27 20:09:00,73.2,58.5,29.38,WSW,243,0.0,0.0,60,0.00,,---,0.00,VWS V13.01,2013-08-28 03:09:00,
2013-08-27 20:13:00,73.0,58.8,29.38,WSW,243,0.0,0.0,61,0.00,,---,0.00,VWS V13.01,2013-08-28 03:13:00,
2013-08-27 20:14:00,73.0,58.8,29.38,WSW,243,0.0,0.0,61,0.00,,---,0.00,VWS V13.01,2013-08-28 03:14:00,
2013-08-27 20:18:00,72.7,58.5,29.38,WSW,244,0.0,0.0,61,0.00,,---,0.00,VWS V13.01,2013-08-28 03:18:00,
2013-08-27 20:19:00,72.7,58.5,29.38,WSW,243,0.0,0.0,61,0.00,,---,0.00,VWS V13.01,2013-08-28 03:19:00,
2013-08-27 20:20:00,72.7,58.5,29.38,WSW,243,0.0,0.0,61,0.00,,---,0.00,VWS V13.01,2013-08-28 03:20:00,
2013-08-27 20:23:00,72.5,58.3,29.38,WSW,243,0.0,0.0,61,0.00,,---,0.00,VWS V13.01,2013-08-28 03:23:00,
2013-08-27 20:24:00,72.5,58.8,29.38,WSW,243,0.0,0.0,62,0.00,,---,0.00,VWS V13.01,2013-08-28 03:24:00,
2013-08-27 20:25:00,72.5,58.8,29.38,WSW,243,0.0,0.0,62,0.00,,---,0.00,VWS V13.01,2013-08-28 03:25:00,
2013-08-27 20:29:00,72.3,58.6,29.38,WSW,243,0.0,0.0,62,0.00,,---,0.00,VWS V13.01,2013-08-28 03:29:00,
2013-08-27 20:30:00,72.3,58.6,29.38,WSW,244,0.0,0.0,62,0.00,,---,0.00,VWS V13.01,2013-08-28 03:30:00,
2013-08-27 20:34:00,72.1,58.9,29.38,WSW,244,0.0,0.0,63,0.00,,---,0.00,VWS V13.01,2013-08-28 03:34:00,
2013-08-27 20:35:00,72.1,58.9,29.38,WSW,244,0.0,0.0,63,0.00,,---,0.00,VWS V13.01,2013-08-28 03:35:00,
2013-08-27 20:39:00,72.0,58.7,29.38,WSW,244,0.0,0.0,63,0.00,,---,0.00,VWS V13.01,2013-08-28 03:39:00,
2013-08-27 20:40:00,72.0,58.7,29.38,WSW,244,0.0,0.0,63,0.00,,---,0.00,VWS V13.01,2013-08-28 03:40:00,
2013-08-27 20:41:00,72.0,58.7,29.38,WSW,244,0.0,0.0,63,0.00,,---,0.00,VWS V13.01,2013-08-28 03:41:00,
2013-08-27 20:44:00,71.8,59.0,29.38,WSW,244,0.0,0.0,64,0.00,,---,0.00,VWS V13.01,2013-08-28 03:44:00,
2013-08-27 20:45:00,71.8,59.0,29.38,WSW,244,0.0,0.0,64,0.00,,---,0.00,VWS V13.01,2013-08-28 03:45:00,
2013-08-27 20:46:00,71.8,59.0,29.38,WSW,244,0.0,0.0,64,0.00,,---,0.00,VWS V13.01,2013-08-28 03:46:00,
2013-08-27 20:49:00,71.6,59.2,29.38,WSW,244,0.0,0.0,65,0.00,,---,0.00,VWS V13.01,2013-08-28 03:49:00,
2013-08-27 20:50:00,71.6,59.2,29.38,WSW,244,0.0,0.0,65,0.00,,---,0.00,VWS V13.01,2013-08-28 03:50:00,
2013-08-27 20:51:00,71.6,59.2,29.38,WSW,244,0.0,0.0,65,0.00,,---,0.00,VWS V13.01,2013-08-28 03:51:00,
2013-08-27 20:55:00,71.2,59.3,29.38,SSW,211,0.0,0.0,66,0.00,,---,0.00,VWS V13.01,2013-08-28 03:55:00,
2013-08-27 20:56:00,71.4,59.5,29.38,SSW,211,0.0,0.0,66,0.00,,---,0.00,VWS V13.01,2013-08-28 03:56:00,
2013-08-27 21:00:00,71.4,59.5,29.38,SSW,211,0.0,0.0,66,0.00,,---,0.00,VWS V13.01,2013-08-28 04:00:00,
2013-08-27 21:01:00,71.4,59.5,29.38,SSW,211,0.0,0.0,66,0.00,,---,0.00,VWS V13.01,2013-08-28 04:01:00,
2013-08-27 21:06:00,71.2,59.7,29.41,South,176,3.6,5.8,67,0.00,,---,0.00,VWS V13.01,2013-08-28 04:06:00,
2013-08-27 21:11:00,70.7,59.6,29.41,NE,46,3.6,3.6,68,0.00,,---,0.00,VWS V13.01,2013-08-28 04:11:00,
2013-08-27 21:16:00,69.8,60.0,29.41,West,263,2.7,2.7,71,0.00,,---,0.00,VWS V13.01,2013-08-28 04:16:00,
2013-08-27 21:17:00,69.4,60.0,29.41,WSW,240,2.7,2.7,72,0.00,,---,0.00,VWS V13.01,2013-08-28 04:17:00,
2013-08-27 21:21:00,69.1,60.5,29.41,East,96,0.0,0.0,74,0.00,,---,0.00,VWS V13.01,2013-08-28 04:21:00,
2013-08-27 21:22:00,68.9,60.3,29.41,East,96,0.0,0.0,74,0.00,,---,0.00,VWS V13.01,2013-08-28 04:22:00,
2013-08-27 21:26:00,68.4,60.1,29.41,East,96,0.0,0.0,75,0.00,,---,0.00,VWS V13.01,2013-08-28 04:26:00,
2013-08-27 21:27:00,68.5,60.7,29.41,East,96,0.0,0.0,76,0.00,,---,0.00,VWS V13.01,2013-08-28 04:27:00,
2013-08-27 21:31:00,68.4,60.5,29.41,East,96,0.0,0.0,76,0.00,,---,0.00,VWS V13.01,2013-08-28 04:31:00,
2013-08-27 21:32:00,68.5,60.7,29.41,East,96,0.0,0.0,76,0.00,,---,0.00,VWS V13.01,2013-08-28 04:32:00,
2013-08-27 21:36:00,68.2,60.7,29.41,SW,229,0.0,0.0,77,0.00,,---,0.00,VWS V13.01,2013-08-28 04:36:00,
2013-08-27 21:37:00,68.2,60.7,29.41,SW,229,0.0,0.0,77,0.00,,---,0.00,VWS V13.01,2013-08-28 04:37:00,
2013-08-27 21:38:00,68.4,60.9,29.41,SW,229,0.0,0.0,77,0.00,,---,0.00,VWS V13.01,2013-08-28 04:38:00,
2013-08-27 21:41:00,68.0,60.9,29.41,SW,229,0.0,0.0,78,0.00,,---,0.00,VWS V13.01,2013-08-28 04:41:00,
2013-08-27 21:42:00,68.0,60.9,29.41,SW,229,0.0,0.0,78,0.00,,---,0.00,VWS V13.01,2013-08-28 04:42:00,
2013-08-27 21:43:00,68.0,60.9,29.41,SW,229,0.0,0.0,78,0.00,,---,0.00,VWS V13.01,2013-08-28 04:43:00,
2013-08-27 21:46:00,67.5,60.7,29.41,SW,229,0.0,0.0,79,0.00,,---,0.00,VWS V13.01,2013-08-28 04:46:00,
2013-08-27 21:47:00,67.5,60.7,29.41,SW,229,0.0,0.0,79,0.00,,---,0.00,VWS V13.01,2013-08-28 04:47:00,
2013-08-27 21:48:00,67.6,60.9,29.41,SW,229,0.0,0.0,79,0.00,,---,0.00,VWS V13.01,2013-08-28 04:48:00,
2013-08-27 21:51:00,67.5,60.7,29.41,SW,229,0.0,0.0,79,0.00,,---,0.00,VWS V13.01,2013-08-28 04:51:00,
2013-08-27 21:52:00,67.3,60.9,29.41,SW,229,0.0,0.0,80,0.00,,---,0.00,VWS V13.01,2013-08-28 04:52:00,
2013-08-27 21:53:00,67.3,60.9,29.41,SW,229,0.0,0.0,80,0.00,,---,0.00,VWS V13.01,2013-08-28 04:53:00,
2013-08-27 21:56:00,66.9,60.6,29.41,SW,229,2.7,2.7,80,0.00,,---,0.00,VWS V13.01,2013-08-28 04:56:00,
2013-08-27 21:57:00,66.9,60.6,29.41,West,266,3.1,3.1,80,0.00,,---,0.00,VWS V13.01,2013-08-28 04:57:00,
2013-08-27 21:58:00,66.7,60.7,29.41,West,266,0.0,0.0,81,0.00,,---,0.00,VWS V13.01,2013-08-28 04:58:00,
2013-08-27 22:01:00,66.7,61.1,29.41,West,266,0.0,0.0,82,0.00,,---,0.00,VWS V13.01,2013-08-28 05:01:00,
2013-08-27 22:02:00,66.7,61.1,29.41,West,266,0.0,0.0,82,0.00,,---,0.00,VWS V13.01,2013-08-28 05:02:00,
2013-08-27 22:03:00,66.6,60.9,29.41,West,266,0.0,0.0,82,0.00,,---,0.00,VWS V13.01,2013-08-28 05:03:00,
2013-08-27 22:07:00,66.7,61.1,29.41,SW,232,0.0,0.0,82,0.00,,---,0.00,VWS V13.01,2013-08-28 05:07:00,
2013-08-27 22:08:00,66.7,61.1,29.41,SW,232,2.2,2.2,82,0.00,,---,0.00,VWS V13.01,2013-08-28 05:08:00,
2013-08-27 22:09:00,66.7,61.1,29.41,SW,232,2.2,2.2,82,0.00,,---,0.00,VWS V13.01,2013-08-28 05:09:00,
2013-08-27 22:12:00,66.4,61.1,29.41,WSW,244,0.0,0.0,83,0.00,,---,0.00,VWS V13.01,2013-08-28 05:12:00,
2013-08-27 22:13:00,66.4,61.1,29.41,WSW,244,0.0,0.0,83,0.00,,---,0.00,VWS V13.01,2013-08-28 05:13:00,
2013-08-27 22:17:00,67.1,61.4,29.41,WSW,244,0.0,0.0,82,0.00,,---,0.00,VWS V13.01,2013-08-28 05:17:00,
2013-08-27 22:18:00,67.1,61.4,29.41,WSW,244,0.0,0.0,82,0.00,,---,0.00,VWS V13.01,2013-08-28 05:18:00,
2013-08-27 22:22:00,67.3,61.6,29.41,WSW,244,0.0,0.0,82,0.00,,---,0.00,VWS V13.01,2013-08-28 05:22:00,
2013-08-27 22:23:00,67.1,61.4,29.41,WSW,244,0.0,0.0,82,0.00,,---,0.00,VWS V13.01,2013-08-28 05:23:00,
2013-08-27 22:27:00,67.1,61.1,29.41,WSW,244,0.0,0.0,81,0.00,,---,0.00,VWS V13.01,2013-08-28 05:27:00,
2013-08-27 22:28:00,66.9,60.9,29.41,WSW,244,0.0,0.0,81,0.00,,---,0.00,VWS V13.01,2013-08-28 05:28:00,
2013-08-27 22:29:00,66.9,60.9,29.41,WSW,244,0.0,0.0,81,0.00,,---,0.00,VWS V13.01,2013-08-28 05:29:00,
2013-08-27 22:32:00,66.7,60.7,29.44,WSW,244,0.0,0.0,81,0.00,,---,0.00,VWS V13.01,2013-08-28 05:32:00,
2013-08-27 22:33:00,66.7,60.7,29.44,WSW,244,0.0,0.0,81,0.00,,---,0.00,VWS V13.01,2013-08-28 05:33:00,
2013-08-27 22:34:00,66.7,60.7,29.44,WSW,244,0.0,0.0,81,0.00,,---,0.00,VWS V13.01,2013-08-28 05:34:00,
2013-08-27 22:37:00,66.7,60.7,29.44,WSW,244,0.0,0.0,81,0.00,,---,0.00,VWS V13.01,2013-08-28 05:37:00,
2013-08-27 22:38:00,66.7,60.7,29.44,WSW,244,0.0,0.0,81,0.00,,---,0.00,VWS V13.01,2013-08-28 05:38:00,
2013-08-27 22:39:00,66.6,60.6,29.44,WSW,244,0.0,0.0,81,0.00,,---,0.00,VWS V13.01,2013-08-28 05:39:00,
2013-08-27 22:42:00,66.6,60.6,29.44,WSW,244,0.0,0.0,81,0.00,,---,0.00,VWS V13.01,2013-08-28 05:42:00,
2013-08-27 22:43:00,66.6,60.6,29.44,WSW,244,0.0,0.0,81,0.00,,---,0.00,VWS V13.01,2013-08-28 05:43:00,
2013-08-27 22:44:00,66.6,60.6,29.44,WSW,244,0.0,0.0,81,0.00,,---,0.00,VWS V13.01,2013-08-28 05:44:00,
2013-08-27 22:47:00,66.6,60.6,29.44,WSW,244,0.0,0.0,81,0.00,,---,0.00,VWS V13.01,2013-08-28 05:47:00,
2013-08-27 22:48:00,66.6,60.6,29.44,WSW,244,0.0,0.0,81,0.00,,---,0.00,VWS V13.01,2013-08-28 05:48:00,
2013-08-27 22:49:00,66.6,60.6,29.44,WSW,244,0.0,0.0,81,0.00,,---,0.00,VWS V13.01,2013-08-28 05:49:00,
2013-08-27 22:52:00,66.4,60.4,29.44,WSW,244,0.0,0.0,81,0.00,,---,0.00,VWS V13.01,2013-08-28 05:52:00,
2013-08-27 22:53:00,66.4,60.4,29.44,WSW,244,0.0,0.0,81,0.00,,---,0.00,VWS V13.01,2013-08-28 05:53:00,
2013-08-27 22:54:00,66.2,60.2,29.44,WSW,244,0.0,0.0,81,0.00,,---,0.00,VWS V13.01,2013-08-28 05:54:00,
2013-08-27 22:57:00,66.4,60.4,29.44,WSW,244,0.0,0.0,81,0.00,,---,0.00,VWS V13.01,2013-08-28 05:57:00,
2013-08-27 22:58:00,66.2,60.2,29.44,WSW,244,0.0,0.0,81,0.00,,---,0.00,VWS V13.01,2013-08-28 05:58:00,
2013-08-27 22:59:00,66.2,60.2,29.44,WSW,244,0.0,0.0,81,0.00,,---,0.00,VWS V13.01,2013-08-28 05:59:00,
2013-08-27 23:00:00,66.2,60.2,29.44,WSW,244,0.0,0.0,81,0.00,,---,0.00,VWS V13.01,2013-08-28 06:00:00,
2013-08-27 23:03:00,66.2,60.2,29.44,WSW,244,0.0,0.0,81,0.00,,---,0.00,VWS V13.01,2013-08-28 06:03:00,
2013-08-27 23:04:00,66.2,60.2,29.44,WSW,244,0.0,0.0,81,0.00,,---,0.00,VWS V13.01,2013-08-28 06:04:00,
2013-08-27 23:05:00,66.2,60.5,29.44,WSW,244,0.0,0.0,82,0.00,,---,0.00,VWS V13.01,2013-08-28 06:05:00,
2013-08-27 23:08:00,66.2,60.5,29.44,WSW,244,0.0,0.0,82,0.00,,---,0.00,VWS V13.01,2013-08-28 06:08:00,
2013-08-27 23:09:00,66.2,60.5,29.44,WSW,244,0.0,0.0,82,0.00,,---,0.00,VWS V13.01,2013-08-28 06:09:00,
2013-08-27 23:10:00,66.0,60.4,29.44,WSW,244,0.0,0.0,82,0.00,,---,0.00,VWS V13.01,2013-08-28 06:10:00,
2013-08-27 23:13:00,65.8,60.2,29.44,WSW,244,0.0,0.0,82,0.00,,---,0.00,VWS V13.01,2013-08-28 06:13:00,
2013-08-27 23:14:00,66.0,60.4,29.44,WSW,244,0.0,0.0,82,0.00,,---,0.00,VWS V13.01,2013-08-28 06:14:00,
2013-08-27 23:15:00,66.0,60.4,29.44,WSW,244,0.0,0.0,82,0.00,,---,0.00,VWS V13.01,2013-08-28 06:15:00,
2013-08-27 23:18:00,66.0,60.4,29.44,WSW,244,0.0,0.0,82,0.00,,---,0.00,VWS V13.01,2013-08-28 06:18:00,
2013-08-27 23:19:00,66.0,60.4,29.44,WSW,244,0.0,0.0,82,0.00,,---,0.00,VWS V13.01,2013-08-28 06:19:00,
2013-08-27 23:20:00,66.0,60.4,29.44,WSW,244,0.0,0.0,82,0.00,,---,0.00,VWS V13.01,2013-08-28 06:20:00,
2013-08-27 23:23:00,65.8,60.2,29.44,WSW,244,0.0,0.0,82,0.00,,---,0.00,VWS V13.01,2013-08-28 06:23:00,
2013-08-27 23:24:00,66.0,60.4,29.44,WSW,244,0.0,0.0,82,0.00,,---,0.00,VWS V13.01,2013-08-28 06:24:00,
2013-08-27 23:25:00,66.0,60.4,29.44,WSW,244,0.0,0.0,82,0.00,,---,0.00,VWS V13.01,2013-08-28 06:25:00,
2013-08-27 23:28:00,65.7,60.0,29.44,WSW,244,0.0,0.0,82,0.00,,---,0.00,VWS V13.01,2013-08-28 06:28:00,
2013-08-27 23:29:00,65.7,60.0,29.44,WSW,244,0.0,0.0,82,0.00,,---,0.00,VWS V13.01,2013-08-28 06:29:00,
2013-08-27 23:30:00,65.5,59.8,29.44,WSW,244,0.0,0.0,82,0.00,,---,0.00,VWS V13.01,2013-08-28 06:30:00,
2013-08-27 23:33:00,65.3,59.7,29.44,WSW,244,0.0,0.0,82,0.00,,---,0.00,VWS V13.01,2013-08-28 06:33:00,
2013-08-27 23:34:00,65.5,59.8,29.44,WSW,244,0.0,0.0,82,0.00,,---,0.00,VWS V13.01,2013-08-28 06:34:00,
2013-08-27 23:35:00,65.5,59.8,29.44,WSW,244,0.0,0.0,82,0.00,,---,0.00,VWS V13.01,2013-08-28 06:35:00,
2013-08-27 23:36:00,65.5,59.8,29.44,WSW,244,0.0,0.0,82,0.00,,---,0.00,VWS V13.01,2013-08-28 06:36:00,
2013-08-27 23:38:00,65.5,59.8,29.44,WSW,244,0.0,0.0,82,0.00,,---,0.00,VWS V13.01,2013-08-28 06:38:00,
2013-08-27 23:39:00,65.5,59.8,29.44,WSW,244,0.0,0.0,82,0.00,,---,0.00,VWS V13.01,2013-08-28 06:39:00,
2013-08-27 23:40:00,65.5,59.8,29.44,WSW,244,0.0,0.0,82,0.00,,---,0.00,VWS V13.01,2013-08-28 06:40:00,
2013-08-27 23:41:00,65.5,59.8,29.44,WSW,244,0.0,0.0,82,0.00,,---,0.00,VWS V13.01,2013-08-28 06:41:00,
2013-08-27 23:43:00,65.5,59.8,29.44,WSW,244,0.0,0.0,82,0.00,,---,0.00,VWS V13.01,2013-08-28 06:43:00,
2013-08-27 23:44:00,65.3,59.7,29.44,WSW,244,0.0,0.0,82,0.00,,---,0.00,VWS V13.01,2013-08-28 06:44:00,
2013-08-27 23:45:00,65.1,59.5,29.44,WSW,244,0.0,0.0,82,0.00,,---,0.00,VWS V13.01,2013-08-28 06:45:00,
2013-08-27 23:46:00,65.1,59.5,29.44,WSW,244,0.0,0.0,82,0.00,,---,0.00,VWS V13.01,2013-08-28 06:46:00,
2013-08-27 23:48:00,65.1,59.8,29.44,WSW,244,0.0,0.0,83,0.00,,---,0.00,VWS V13.01,2013-08-28 06:48:00,
2013-08-27 23:49:00,65.1,59.8,29.44,WSW,244,0.0,0.0,83,0.00,,---,0.00,VWS V13.01,2013-08-28 06:49:00,
2013-08-27 23:50:00,65.1,59.8,29.44,WSW,244,0.0,0.0,83,0.00,,---,0.00,VWS V13.01,2013-08-28 06:50:00,
2013-08-27 23:51:00,65.1,59.5,29.44,WSW,244,0.0,0.0,82,0.00,,---,0.00,VWS V13.01,2013-08-28 06:51:00,
2013-08-27 23:54:00,65.1,59.5,29.44,WSW,244,0.0,0.0,82,0.00,,---,0.00,VWS V13.01,2013-08-28 06:54:00,
2013-08-27 23:55:00,65.1,59.5,29.44,WSW,244,0.0,0.0,82,0.00,,---,0.00,VWS V13.01,2013-08-28 06:55:00,
2013-08-27 23:56:00,65.1,59.5,29.44,WSW,244,0.0,0.0,82,0.00,,---,0.00,VWS V13.01,2013-08-28 06:56:00,
2013-08-27 23:59:00,65.1,59.5,29.44,WSW,244,0.0,0.0,82,0.00,,---,0.00,VWS V13.01,2013-08-28 06:59:00,